Time,TemperatureF,DewpointF,PressureIn,WindDirection,WindDirectionDegrees,WindSpeedMPH,WindSpeedGustMPH,Humidity,HourlyPrecipIn,Conditions,Clouds,dailyrainin,SolarRadiationWatts/m^2,SoftwareType,DateUTC
2013-12-04 00:00:00,31.9,29.0,30.00,NW,324,0.0,0.0,89,0.00,,,0.00,0,WeatherCatV1.20B785,2013-12-04 05:00:00,
2013-12-04 00:01:00,31.9,29.0,30.00,NW,324,0.0,0.0,89,0.00,,,0.00,0,WeatherCatV1.20B785,2013-12-04 05:01:00,
2013-12-04 00:02:00,32.0,29.1,30.00,NW,324,0.0,0.0,89,0.00,,,0.00,0,WeatherCatV1.20B785,2013-12-04 05:02:00,
2013-12-04 00:06:00,32.1,29.2,30.00,NW,324,0.0,0.0,89,0.00,,,0.00,0,WeatherCatV1.20B785,2013-12-04 05:06:00,
2013-12-04 00:07:00,32.2,29.3,30.00,NW,324,0.0,0.0,89,0.00,,,0.00,0,WeatherCatV1.20B785,2013-12-04 05:07:00,
2013-12-04 00:11:00,32.1,29.2,30.00,NW,324,0.0,1.0,89,0.00,,,0.00,0,WeatherCatV1.20B785,2013-12-04 05:11:00,
2013-12-04 00:12:00,32.1,29.2,30.00,NW,324,1.0,1.0,89,0.00,,,0.00,0,WeatherCatV1.20B785,2013-12-04 05:12:00,
2013-12-04 00:13:00,32.1,29.5,30.00,NW,324,0.0,1.0,90,0.00,,,0.00,0,WeatherCatV1.20B785,2013-12-04 05:13:00,
2013-12-04 00:16:00,31.9,29.3,30.00,NW,324,1.0,2.0,90,0.00,,,0.00,0,WeatherCatV1.20B785,2013-12-04 05:16:00,
2013-12-04 00:17:00,31.9,29.3,30.00,NW,324,2.0,2.0,90,0.00,,,0.00,0,WeatherCatV1.20B785,2013-12-04 05:17:00,
2013-12-04 00:18:00,31.8,29.2,30.00,NW,324,0.0,2.0,90,0.00,,,0.00,0,WeatherCatV1.20B785,2013-12-04 05:18:00,
2013-12-04 00:21:00,31.7,29.1,30.01,NW,324,0.0,0.0,90,0.00,,,0.00,0,WeatherCatV1.20B785,2013-12-04 05:21:00,
2013-12-04 00:22:00,31.7,29.1,30.01,NW,324,0.0,0.0,90,0.00,,,0.00,0,WeatherCatV1.20B785,2013-12-04 05:22:00,
2013-12-04 00:23:00,31.7,29.1,30.01,NW,324,0.0,0.0,90,0.00,,,0.00,0,WeatherCatV1.20B785,2013-12-04 05:23:00,
2013-12-04 00:24:00,31.7,29.1,30.00,NW,324,0.0,0.0,90,0.00,,,0.00,0,WeatherCatV1.20B785,2013-12-04 05:24:00,
2013-12-04 00:26:00,31.7,29.1,30.01,NW,324,0.0,0.0,90,0.00,,,0.00,0,WeatherCatV1.20B785,2013-12-04 05:26:00,
2013-12-04 00:27:00,31.7,29.1,30.01,NW,324,0.0,1.0,90,0.00,,,0.00,0,WeatherCatV1.20B785,2013-12-04 05:27:00,
2013-12-04 00:28:00,31.7,29.1,30.01,NW,324,0.0,1.0,90,0.00,,,0.00,0,WeatherCatV1.20B785,2013-12-04 05:28:00,
2013-12-04 00:29:00,31.7,29.1,30.01,NW,324,0.0,1.0,90,0.00,,,0.00,0,WeatherCatV1.20B785,2013-12-04 05:29:00,
2013-12-04 00:32:00,31.6,29.0,30.01,NW,324,0.0,0.0,90,0.00,,,0.00,0,WeatherCatV1.20B785,2013-12-04 05:32:00,
2013-12-04 00:33:00,31.6,29.0,30.01,NW,324,0.0,0.0,90,0.00,,,0.00,0,WeatherCatV1.20B785,2013-12-04 05:33:00,
2013-12-04 00:34:00,31.6,29.0,30.00,NW,324,0.0,0.0,90,0.00,,,0.00,0,WeatherCatV1.20B785,2013-12-04 05:34:00,
2013-12-04 00:38:00,31.7,29.1,30.00,NW,324,0.0,0.0,90,0.00,,,0.00,0,WeatherCatV1.20B785,2013-12-04 05:38:00,
2013-12-04 00:39:00,31.7,28.8,30.00,NW,324,0.0,0.0,89,0.00,,,0.00,0,WeatherCatV1.20B785,2013-12-04 05:39:00,
2013-12-04 00:43:00,31.9,29.0,30.00,NW,324,0.0,2.0,89,0.00,,,0.00,0,WeatherCatV1.20B785,2013-12-04 05:43:00,
2013-12-04 00:44:00,31.9,29.0,30.00,NW,324,0.0,2.0,89,0.00,,,0.00,0,WeatherCatV1.20B785,2013-12-04 05:44:00,
2013-12-04 00:45:00,31.9,29.0,30.00,NW,324,0.0,0.0,89,0.00,,,0.00,0,WeatherCatV1.20B785,2013-12-04 05:45:00,
2013-12-04 00:48:00,32.1,29.2,30.00,NW,324,1.0,1.0,89,0.00,,,0.00,0,WeatherCatV1.20B785,2013-12-04 05:48:00,
2013-12-04 00:49:00,32.1,29.2,30.01,NW,324,0.0,1.0,89,0.00,,,0.00,0,WeatherCatV1.20B785,2013-12-04 05:49:00,
2013-12-04 00:50:00,32.1,29.2,30.00,NW,324,0.0,0.0,89,0.00,,,0.00,0,WeatherCatV1.20B785,2013-12-04 05:50:00,
2013-12-04 00:54:00,32.2,29.3,30.00,NW,324,0.0,0.0,89,0.00,,,0.00,0,WeatherCatV1.20B785,2013-12-04 05:54:00,
2013-12-04 00:55:00,32.3,29.4,30.00,NW,324,0.0,0.0,89,0.00,,,0.00,0,WeatherCatV1.20B785,2013-12-04 05:55:00,
2013-12-04 00:57:00,32.2,29.3,30.00,NW,324,0.0,0.0,89,0.00,,,0.00,0,WeatherCatV1.20B785,2013-12-04 05:57:00,
2013-12-04 00:59:00,32.2,29.3,30.00,NW,324,0.0,0.0,89,0.00,,,0.00,0,WeatherCatV1.20B785,2013-12-04 05:59:00,
2013-12-04 01:00:00,32.3,29.4,30.00,NW,324,0.0,0.0,89,0.00,,,0.00,0,WeatherCatV1.20B785,2013-12-04 06:00:00,
2013-12-04 01:02:00,32.3,29.4,30.00,NW,324,0.0,0.0,89,0.00,,,0.00,0,WeatherCatV1.20B785,2013-12-04 06:02:00,
2013-12-04 01:04:00,32.3,29.4,30.00,NW,324,0.0,0.0,89,0.00,,,0.00,0,WeatherCatV1.20B785,2013-12-04 06:04:00,
2013-12-04 01:05:00,32.3,29.4,30.00,NW,324,0.0,0.0,89,0.00,,,0.00,0,WeatherCatV1.20B785,2013-12-04 06:05:00,
2013-12-04 01:06:00,32.3,29.4,30.00,NW,324,0.0,0.0,89,0.00,,,0.00,0,WeatherCatV1.20B785,2013-12-04 06:06:00,
2013-12-04 01:07:00,32.4,29.5,30.00,NW,324,0.0,0.0,89,0.00,,,0.00,0,WeatherCatV1.20B785,2013-12-04 06:07:00,
2013-12-04 01:08:00,32.3,29.4,30.00,NW,324,0.0,0.0,89,0.00,,,0.00,0,WeatherCatV1.20B785,2013-12-04 06:08:00,
2013-12-04 01:10:00,32.3,29.4,30.00,NW,324,1.0,1.0,89,0.00,,,0.00,0,WeatherCatV1.20B785,2013-12-04 06:10:00,
2013-12-04 01:11:00,32.3,29.4,30.00,NW,324,0.0,1.0,89,0.00,,,0.00,0,WeatherCatV1.20B785,2013-12-04 06:11:00,
2013-12-04 01:13:00,32.3,29.4,30.00,NW,324,0.0,0.0,89,0.00,,,0.00,0,WeatherCatV1.20B785,2013-12-04 06:13:00,
2013-12-04 01:15:00,32.3,29.4,30.00,NW,324,0.0,0.0,89,0.00,,,0.00,0,WeatherCatV1.20B785,2013-12-04 06:15:00,
2013-12-04 01:16:00,32.3,29.4,30.00,NW,324,0.0,0.0,89,0.00,,,0.00,0,WeatherCatV1.20B785,2013-12-04 06:16:00,
2013-12-04 01:17:00,32.3,29.4,30.00,NW,324,0.0,0.0,89,0.00,,,0.00,0,WeatherCatV1.20B785,2013-12-04 06:17:00,
2013-12-04 01:18:00,32.3,29.4,30.00,NW,324,0.0,0.0,89,0.00,,,0.00,0,WeatherCatV1.20B785,2013-12-04 06:18:00,
2013-12-04 01:19:00,32.3,29.4,30.00,NW,324,0.0,0.0,89,0.00,,,0.00,0,WeatherCatV1.20B785,2013-12-04 06:19:00,
2013-12-04 01:20:00,32.3,29.7,30.00,NW,324,0.0,0.0,90,0.00,,,0.00,0,WeatherCatV1.20B785,2013-12-04 06:20:00,
2013-12-04 01:21:00,32.3,29.7,30.00,NW,324,0.0,0.0,90,0.00,,,0.00,0,WeatherCatV1.20B785,2013-12-04 06:21:00,
2013-12-04 01:22:00,32.3,29.7,29.99,NW,324,0.0,0.0,90,0.00,,,0.00,0,WeatherCatV1.20B785,2013-12-04 06:22:00,
2013-12-04 01:24:00,32.2,29.6,29.99,NW,324,0.0,0.0,90,0.00,,,0.00,0,WeatherCatV1.20B785,2013-12-04 06:24:00,
2013-12-04 01:25:00,32.2,29.6,29.99,NW,324,0.0,0.0,90,0.00,,,0.00,0,WeatherCatV1.20B785,2013-12-04 06:25:00,
2013-12-04 01:26:00,32.2,29.6,29.99,NW,324,0.0,0.0,90,0.00,,,0.00,0,WeatherCatV1.20B785,2013-12-04 06:26:00,
2013-12-04 01:28:00,32.1,29.5,29.99,NW,324,1.0,1.0,90,0.00,,,0.00,0,WeatherCatV1.20B785,2013-12-04 06:28:00,
2013-12-04 01:29:00,32.1,29.5,29.99,NW,324,1.0,1.0,90,0.00,,,0.00,0,WeatherCatV1.20B785,2013-12-04 06:29:00,
2013-12-04 01:30:00,32.1,29.5,29.99,NW,324,0.0,0.0,90,0.00,,,0.00,0,WeatherCatV1.20B785,2013-12-04 06:30:00,
2013-12-04 01:31:00,32.1,29.5,29.99,NW,324,0.0,0.0,90,0.00,,,0.00,0,WeatherCatV1.20B785,2013-12-04 06:31:00,
2013-12-04 01:33:00,32.0,29.4,29.99,NW,324,0.0,0.0,90,0.00,,,0.00,0,WeatherCatV1.20B785,2013-12-04 06:33:00,
2013-12-04 01:34:00,32.0,29.4,29.99,NW,324,0.0,0.0,90,0.00,,,0.00,0,WeatherCatV1.20B785,2013-12-04 06:34:00,
2013-12-04 01:35:00,31.9,29.3,29.99,NW,324,0.0,0.0,90,0.00,,,0.00,0,WeatherCatV1.20B785,2013-12-04 06:35:00,
2013-12-04 01:36:00,31.9,29.3,30.00,NW,324,0.0,0.0,90,0.00,,,0.00,0,WeatherCatV1.20B785,2013-12-04 06:36:00,
2013-12-04 01:37:00,31.9,29.3,30.00,NW,324,0.0,0.0,90,0.00,,,0.00,0,WeatherCatV1.20B785,2013-12-04 06:37:00,
2013-12-04 01:39:00,31.9,29.3,30.00,NW,324,0.0,0.0,90,0.00,,,0.00,0,WeatherCatV1.20B785,2013-12-04 06:39:00,
2013-12-04 01:40:00,31.8,29.2,30.00,NW,324,0.0,0.0,90,0.00,,,0.00,0,WeatherCatV1.20B785,2013-12-04 06:40:00,
2013-12-04 01:42:00,31.8,29.2,30.00,NW,324,0.0,0.0,90,0.00,,,0.00,0,WeatherCatV1.20B785,2013-12-04 06:42:00,
2013-12-04 01:44:00,31.7,29.1,30.00,NW,324,0.0,0.0,90,0.00,,,0.00,0,WeatherCatV1.20B785,2013-12-04 06:44:00,
2013-12-04 01:45:00,31.7,29.1,30.00,NW,324,0.0,0.0,90,0.00,,,0.00,0,WeatherCatV1.20B785,2013-12-04 06:45:00,
2013-12-04 01:46:00,31.8,29.2,29.99,NW,324,1.0,1.0,90,0.00,,,0.00,0,WeatherCatV1.20B785,2013-12-04 06:46:00,
2013-12-04 01:47:00,31.7,29.1,29.99,NW,324,1.0,1.0,90,0.00,,,0.00,0,WeatherCatV1.20B785,2013-12-04 06:47:00,
2013-12-04 01:48:00,31.7,29.1,30.00,NW,324,1.0,2.0,90,0.00,,,0.00,0,WeatherCatV1.20B785,2013-12-04 06:48:00,
2013-12-04 01:49:00,31.7,29.1,30.00,NW,324,2.0,2.0,90,0.00,,,0.00,0,WeatherCatV1.20B785,2013-12-04 06:49:00,
2013-12-04 01:50:00,31.7,29.1,30.00,NW,324,1.0,2.0,90,0.00,,,0.00,0,WeatherCatV1.20B785,2013-12-04 06:50:00,
2013-12-04 01:51:00,31.7,29.1,30.00,NW,324,1.0,2.0,90,0.00,,,0.00,0,WeatherCatV1.20B785,2013-12-04 06:51:00,
2013-12-04 01:52:00,31.7,29.1,30.00,NW,324,0.0,2.0,90,0.00,,,0.00,0,WeatherCatV1.20B785,2013-12-04 06:52:00,
2013-12-04 01:54:00,31.7,29.1,30.00,NW,324,0.0,1.0,90,0.00,,,0.00,0,WeatherCatV1.20B785,2013-12-04 06:54:00,
2013-12-04 01:55:00,31.7,29.1,30.00,NW,324,0.0,0.0,90,0.00,,,0.00,0,WeatherCatV1.20B785,2013-12-04 06:55:00,
2013-12-04 01:56:00,31.7,29.1,30.00,NW,324,0.0,0.0,90,0.00,,,0.00,0,WeatherCatV1.20B785,2013-12-04 06:56:00,
2013-12-04 01:57:00,31.7,29.1,30.00,NW,324,0.0,0.0,90,0.00,,,0.00,0,WeatherCatV1.20B785,2013-12-04 06:57:00,
2013-12-04 01:58:00,31.7,29.1,30.00,NW,324,0.0,0.0,90,0.00,,,0.00,0,WeatherCatV1.20B785,2013-12-04 06:58:00,
2013-12-04 02:01:00,31.7,29.1,30.00,NW,324,1.0,1.0,90,0.00,,,0.00,0,WeatherCatV1.20B785,2013-12-04 07:01:00,
2013-12-04 02:02:00,31.6,29.0,30.00,NW,324,1.0,1.0,90,0.00,,,0.00,0,WeatherCatV1.20B785,2013-12-04 07:02:00,
2013-12-04 02:04:00,31.6,29.0,30.01,NW,324,0.0,1.0,90,0.00,,,0.00,0,WeatherCatV1.20B785,2013-12-04 07:04:00,
2013-12-04 02:06:00,31.5,28.9,30.01,NW,324,0.0,0.0,90,0.00,,,0.00,0,WeatherCatV1.20B785,2013-12-04 07:06:00,
2013-12-04 02:07:00,31.5,28.9,30.01,NW,324,0.0,0.0,90,0.00,,,0.00,0,WeatherCatV1.20B785,2013-12-04 07:07:00,
2013-12-04 02:10:00,31.4,28.8,30.01,NW,324,0.0,0.0,90,0.00,,,0.00,0,WeatherCatV1.20B785,2013-12-04 07:10:00,
2013-12-04 02:11:00,31.3,28.7,30.01,NW,324,0.0,0.0,90,0.00,,,0.00,0,WeatherCatV1.20B785,2013-12-04 07:11:00,
2013-12-04 02:12:00,31.3,28.7,30.01,NW,324,0.0,0.0,90,0.00,,,0.00,0,WeatherCatV1.20B785,2013-12-04 07:12:00,
2013-12-04 02:13:00,31.3,28.7,30.02,NW,324,0.0,0.0,90,0.00,,,0.00,0,WeatherCatV1.20B785,2013-12-04 07:13:00,
2013-12-04 02:14:00,31.3,28.7,30.02,NW,324,0.0,0.0,90,0.00,,,0.00,0,WeatherCatV1.20B785,2013-12-04 07:14:00,
2013-12-04 02:16:00,31.2,28.6,30.02,NW,324,0.0,0.0,90,0.00,,,0.00,0,WeatherCatV1.20B785,2013-12-04 07:16:00,
2013-12-04 02:17:00,31.2,28.6,30.02,NW,324,0.0,0.0,90,0.00,,,0.00,0,WeatherCatV1.20B785,2013-12-04 07:17:00,
2013-12-04 02:18:00,31.2,28.6,30.02,NW,324,0.0,0.0,90,0.00,,,0.00,0,WeatherCatV1.20B785,2013-12-04 07:18:00,
2013-12-04 02:19:00,31.2,28.6,30.02,NW,324,0.0,0.0,90,0.00,,,0.00,0,WeatherCatV1.20B785,2013-12-04 07:19:00,
2013-12-04 02:21:00,31.2,28.6,30.02,NW,324,0.0,1.0,90,0.00,,,0.00,0,WeatherCatV1.20B785,2013-12-04 07:21:00,
2013-12-04 02:22:00,31.2,28.3,30.02,NW,324,0.0,0.0,89,0.00,,,0.00,0,WeatherCatV1.20B785,2013-12-04 07:22:00,
2013-12-04 02:23:00,31.3,28.4,30.02,NW,324,0.0,0.0,89,0.00,,,0.00,0,WeatherCatV1.20B785,2013-12-04 07:23:00,
2013-12-04 02:24:00,31.4,28.5,30.02,NW,324,0.0,0.0,89,0.00,,,0.00,0,WeatherCatV1.20B785,2013-12-04 07:24:00,
2013-12-04 02:27:00,31.5,28.6,30.03,NW,324,0.0,0.0,89,0.00,,,0.00,0,WeatherCatV1.20B785,2013-12-04 07:27:00,
2013-12-04 02:28:00,31.5,28.6,30.03,NW,324,0.0,0.0,89,0.00,,,0.00,0,WeatherCatV1.20B785,2013-12-04 07:28:00,
2013-12-04 02:29:00,31.5,28.6,30.03,NW,324,0.0,0.0,89,0.00,,,0.00,0,WeatherCatV1.20B785,2013-12-04 07:29:00,
2013-12-04 02:33:00,31.5,28.6,30.03,NW,324,2.0,2.0,89,0.00,,,0.00,0,WeatherCatV1.20B785,2013-12-04 07:33:00,
2013-12-04 02:34:00,31.5,28.6,30.03,NW,324,1.0,2.0,89,0.00,,,0.00,0,WeatherCatV1.20B785,2013-12-04 07:34:00,
2013-12-04 02:35:00,31.5,28.6,30.03,NW,324,0.0,1.0,89,0.00,,,0.00,0,WeatherCatV1.20B785,2013-12-04 07:35:00,
2013-12-04 02:38:00,31.4,28.8,30.03,NW,324,0.0,0.0,90,0.00,,,0.00,0,WeatherCatV1.20B785,2013-12-04 07:38:00,
2013-12-04 02:39:00,31.4,28.8,30.03,NW,324,0.0,0.0,90,0.00,,,0.00,0,WeatherCatV1.20B785,2013-12-04 07:39:00,
2013-12-04 02:40:00,31.4,28.8,30.03,NW,324,0.0,0.0,90,0.00,,,0.00,0,WeatherCatV1.20B785,2013-12-04 07:40:00,
2013-12-04 02:43:00,31.3,28.7,30.03,NW,324,0.0,1.0,90,0.00,,,0.00,0,WeatherCatV1.20B785,2013-12-04 07:43:00,
2013-12-04 02:44:00,31.3,28.7,30.03,NW,324,0.0,1.0,90,0.00,,,0.00,0,WeatherCatV1.20B785,2013-12-04 07:44:00,
2013-12-04 02:46:00,31.2,28.6,30.03,NW,324,0.0,0.0,90,0.00,,,0.00,0,WeatherCatV1.20B785,2013-12-04 07:46:00,
2013-12-04 02:49:00,31.2,28.6,30.03,NW,324,0.0,0.0,90,0.00,,,0.00,0,WeatherCatV1.20B785,2013-12-04 07:49:00,
2013-12-04 02:50:00,31.2,28.6,30.03,NW,324,0.0,0.0,90,0.00,,,0.00,0,WeatherCatV1.20B785,2013-12-04 07:50:00,
2013-12-04 02:52:00,31.2,28.3,30.03,NW,324,0.0,1.0,89,0.00,,,0.00,0,WeatherCatV1.20B785,2013-12-04 07:52:00,
2013-12-04 02:54:00,31.2,28.3,30.04,NW,324,0.0,1.0,89,0.00,,,0.00,0,WeatherCatV1.20B785,2013-12-04 07:54:00,
2013-12-04 02:55:00,31.2,28.3,30.04,NW,324,1.0,1.0,89,0.00,,,0.00,0,WeatherCatV1.20B785,2013-12-04 07:55:00,
2013-12-04 02:56:00,31.1,28.5,30.04,NW,324,1.0,2.0,90,0.00,,,0.00,0,WeatherCatV1.20B785,2013-12-04 07:56:00,
2013-12-04 02:57:00,31.1,28.5,30.04,NW,324,0.0,1.0,90,0.00,,,0.00,0,WeatherCatV1.20B785,2013-12-04 07:57:00,
2013-12-04 02:58:00,31.1,28.5,30.04,NW,324,0.0,1.0,90,0.00,,,0.00,0,WeatherCatV1.20B785,2013-12-04 07:58:00,
2013-12-04 03:01:00,31.0,28.4,30.03,NW,324,0.0,0.0,90,0.00,,,0.00,0,WeatherCatV1.20B785,2013-12-04 08:01:00,
2013-12-04 03:02:00,31.0,28.4,30.03,NW,324,0.0,0.0,90,0.00,,,0.00,0,WeatherCatV1.20B785,2013-12-04 08:02:00,
2013-12-04 03:03:00,31.0,28.4,30.03,NW,324,0.0,0.0,90,0.00,,,0.00,0,WeatherCatV1.20B785,2013-12-04 08:03:00,
2013-12-04 03:06:00,31.0,28.1,30.03,NW,324,0.0,0.0,89,0.00,,,0.00,0,WeatherCatV1.20B785,2013-12-04 08:06:00,
2013-12-04 03:08:00,31.0,28.1,30.03,NW,324,0.0,0.0,89,0.00,,,0.00,0,WeatherCatV1.20B785,2013-12-04 08:08:00,
2013-12-04 03:11:00,30.9,28.0,30.03,NW,324,0.0,0.0,89,0.00,,,0.00,0,WeatherCatV1.20B785,2013-12-04 08:11:00,
2013-12-04 03:12:00,31.0,28.1,30.03,NW,324,0.0,0.0,89,0.00,,,0.00,0,WeatherCatV1.20B785,2013-12-04 08:12:00,
2013-12-04 03:13:00,31.0,28.1,30.03,NW,324,0.0,0.0,89,0.00,,,0.00,0,WeatherCatV1.20B785,2013-12-04 08:13:00,
2013-12-04 03:14:00,31.0,28.1,30.03,NW,324,0.0,0.0,89,0.00,,,0.00,0,WeatherCatV1.20B785,2013-12-04 08:14:00,
2013-12-04 03:16:00,30.9,28.0,30.03,NW,324,0.0,0.0,89,0.00,,,0.00,0,WeatherCatV1.20B785,2013-12-04 08:16:00,
2013-12-04 03:18:00,30.9,28.0,30.03,NW,324,0.0,0.0,89,0.00,,,0.00,0,WeatherCatV1.20B785,2013-12-04 08:18:00,
2013-12-04 03:19:00,30.9,28.0,30.03,NW,324,0.0,0.0,89,0.00,,,0.00,0,WeatherCatV1.20B785,2013-12-04 08:19:00,
2013-12-04 03:21:00,30.8,28.2,30.04,NW,324,0.0,0.0,90,0.00,,,0.00,0,WeatherCatV1.20B785,2013-12-04 08:21:00,
2013-12-04 03:22:00,30.8,28.2,30.04,NW,324,0.0,0.0,90,0.00,,,0.00,0,WeatherCatV1.20B785,2013-12-04 08:22:00,
2013-12-04 03:23:00,30.7,28.1,30.04,NW,324,0.0,2.0,90,0.00,,,0.00,0,WeatherCatV1.20B785,2013-12-04 08:23:00,
2013-12-04 03:24:00,30.6,28.0,30.03,NW,324,1.0,2.0,90,0.00,,,0.00,0,WeatherCatV1.20B785,2013-12-04 08:24:00,
2013-12-04 03:26:00,30.5,27.9,30.03,NW,324,0.0,0.0,90,0.00,,,0.00,0,WeatherCatV1.20B785,2013-12-04 08:26:00,
2013-12-04 03:29:00,30.4,27.8,30.03,NW,324,0.0,0.0,90,0.00,,,0.00,0,WeatherCatV1.20B785,2013-12-04 08:29:00,
2013-12-04 03:32:00,30.4,27.8,30.03,NW,324,0.0,0.0,90,0.00,,,0.00,0,WeatherCatV1.20B785,2013-12-04 08:32:00,
2013-12-04 03:34:00,30.3,27.7,30.03,NW,324,0.0,0.0,90,0.00,,,0.00,0,WeatherCatV1.20B785,2013-12-04 08:34:00,
2013-12-04 03:35:00,30.3,27.7,30.03,NW,324,0.0,0.0,90,0.00,,,0.00,0,WeatherCatV1.20B785,2013-12-04 08:35:00,
2013-12-04 03:37:00,30.3,27.5,30.03,NW,324,0.0,0.0,89,0.00,,,0.00,0,WeatherCatV1.20B785,2013-12-04 08:37:00,
2013-12-04 03:39:00,30.3,27.5,30.03,NW,324,0.0,0.0,89,0.00,,,0.00,0,WeatherCatV1.20B785,2013-12-04 08:39:00,
2013-12-04 03:40:00,30.3,27.5,30.03,NW,324,0.0,0.0,89,0.00,,,0.00,0,WeatherCatV1.20B785,2013-12-04 08:40:00,
2013-12-04 03:41:00,30.3,27.5,30.03,NW,324,0.0,0.0,89,0.00,,,0.00,0,WeatherCatV1.20B785,2013-12-04 08:41:00,
2013-12-04 03:42:00,30.2,27.6,30.03,NW,324,0.0,0.0,90,0.00,,,0.00,0,WeatherCatV1.20B785,2013-12-04 08:42:00,
2013-12-04 03:44:00,30.2,27.4,30.03,NW,324,0.0,0.0,89,0.00,,,0.00,0,WeatherCatV1.20B785,2013-12-04 08:44:00,
2013-12-04 03:45:00,30.2,27.4,30.03,NW,324,0.0,0.0,89,0.00,,,0.00,0,WeatherCatV1.20B785,2013-12-04 08:45:00,
2013-12-04 03:46:00,30.2,27.4,30.03,NW,324,0.0,0.0,89,0.00,,,0.00,0,WeatherCatV1.20B785,2013-12-04 08:46:00,
2013-12-04 03:47:00,30.2,27.4,30.02,NW,324,0.0,0.0,89,0.00,,,0.00,0,WeatherCatV1.20B785,2013-12-04 08:47:00,
2013-12-04 03:49:00,30.1,27.5,30.02,NW,324,0.0,0.0,90,0.00,,,0.00,0,WeatherCatV1.20B785,2013-12-04 08:49:00,
2013-12-04 03:50:00,30.1,27.5,30.03,NW,324,0.0,1.0,90,0.00,,,0.00,0,WeatherCatV1.20B785,2013-12-04 08:50:00,
2013-12-04 03:52:00,30.0,27.4,30.02,NW,324,0.0,0.0,90,0.00,,,0.00,0,WeatherCatV1.20B785,2013-12-04 08:52:00,
2013-12-04 03:53:00,29.9,27.3,30.02,NW,324,0.0,0.0,90,0.00,,,0.00,0,WeatherCatV1.20B785,2013-12-04 08:53:00,
2013-12-04 03:54:00,29.8,27.2,30.02,NW,324,0.0,0.0,90,0.00,,,0.00,0,WeatherCatV1.20B785,2013-12-04 08:54:00,
2013-12-04 03:57:00,29.7,27.1,30.02,NW,324,0.0,0.0,90,0.00,,,0.00,0,WeatherCatV1.20B785,2013-12-04 08:57:00,
2013-12-04 03:58:00,29.6,27.0,30.02,NW,324,0.0,0.0,90,0.00,,,0.00,0,WeatherCatV1.20B785,2013-12-04 08:58:00,
2013-12-04 03:59:00,29.5,26.9,30.02,NW,324,1.0,2.0,90,0.00,,,0.00,0,WeatherCatV1.20B785,2013-12-04 08:59:00,
2013-12-04 04:02:00,29.3,26.7,30.02,NW,324,0.0,2.0,90,0.00,,,0.00,0,WeatherCatV1.20B785,2013-12-04 09:02:00,
2013-12-04 04:03:00,29.3,26.7,30.02,NW,324,0.0,1.0,90,0.00,,,0.00,0,WeatherCatV1.20B785,2013-12-04 09:03:00,
2013-12-04 04:04:00,29.3,26.7,30.02,NW,324,0.0,0.0,90,0.00,,,0.00,0,WeatherCatV1.20B785,2013-12-04 09:04:00,
2013-12-04 04:07:00,29.1,26.5,30.02,NW,324,0.0,0.0,90,0.00,,,0.00,0,WeatherCatV1.20B785,2013-12-04 09:07:00,
2013-12-04 04:08:00,29.1,26.5,30.02,NW,324,0.0,0.0,90,0.00,,,0.00,0,WeatherCatV1.20B785,2013-12-04 09:08:00,
2013-12-04 04:09:00,29.1,26.5,30.02,NW,324,0.0,0.0,90,0.00,,,0.00,0,WeatherCatV1.20B785,2013-12-04 09:09:00,
2013-12-04 04:10:00,29.0,26.4,30.02,NW,324,0.0,0.0,90,0.00,,,0.00,0,WeatherCatV1.20B785,2013-12-04 09:10:00,
2013-12-04 04:13:00,29.0,26.4,30.02,NW,324,0.0,0.0,90,0.00,,,0.00,0,WeatherCatV1.20B785,2013-12-04 09:13:00,
2013-12-04 04:14:00,29.0,26.4,30.02,NW,324,0.0,0.0,90,0.00,,,0.00,0,WeatherCatV1.20B785,2013-12-04 09:14:00,
2013-12-04 04:15:00,29.0,26.4,30.02,NW,324,0.0,0.0,90,0.00,,,0.00,0,WeatherCatV1.20B785,2013-12-04 09:15:00,
2013-12-04 04:18:00,29.0,26.4,30.01,NW,324,0.0,0.0,90,0.00,,,0.00,0,WeatherCatV1.20B785,2013-12-04 09:18:00,
2013-12-04 04:19:00,28.9,26.3,30.01,NW,324,0.0,0.0,90,0.00,,,0.00,0,WeatherCatV1.20B785,2013-12-04 09:19:00,
2013-12-04 04:20:00,29.0,26.4,30.01,NW,324,0.0,0.0,90,0.00,,,0.00,0,WeatherCatV1.20B785,2013-12-04 09:20:00,
2013-12-04 04:23:00,29.0,26.2,30.01,NW,324,0.0,0.0,89,0.00,,,0.00,0,WeatherCatV1.20B785,2013-12-04 09:23:00,
2013-12-04 04:24:00,29.0,26.2,30.01,NW,324,0.0,0.0,89,0.00,,,0.00,0,WeatherCatV1.20B785,2013-12-04 09:24:00,
2013-12-04 04:25:00,29.0,26.2,30.01,NW,324,0.0,0.0,89,0.00,,,0.00,0,WeatherCatV1.20B785,2013-12-04 09:25:00,
2013-12-04 04:26:00,29.0,26.2,30.01,NW,324,0.0,0.0,89,0.00,,,0.00,0,WeatherCatV1.20B785,2013-12-04 09:26:00,
2013-12-04 04:29:00,29.0,26.2,30.01,NW,324,0.0,0.0,89,0.00,,,0.00,0,WeatherCatV1.20B785,2013-12-04 09:29:00,
2013-12-04 04:30:00,29.0,26.2,30.01,NW,324,0.0,0.0,89,0.00,,,0.00,0,WeatherCatV1.20B785,2013-12-04 09:30:00,
2013-12-04 04:31:00,29.0,26.2,30.01,NW,324,0.0,0.0,89,0.00,,,0.00,0,WeatherCatV1.20B785,2013-12-04 09:31:00,
2013-12-04 04:35:00,29.0,26.2,30.01,NW,324,0.0,0.0,89,0.00,,,0.00,0,WeatherCatV1.20B785,2013-12-04 09:35:00,
2013-12-04 04:37:00,29.0,26.2,30.01,NW,324,0.0,0.0,89,0.00,,,0.00,0,WeatherCatV1.20B785,2013-12-04 09:37:00,
2013-12-04 04:40:00,28.9,26.1,30.01,NW,324,0.0,0.0,89,0.00,,,0.00,0,WeatherCatV1.20B785,2013-12-04 09:40:00,
2013-12-04 04:41:00,28.9,26.1,30.01,NW,324,0.0,0.0,89,0.00,,,0.00,0,WeatherCatV1.20B785,2013-12-04 09:41:00,
2013-12-04 04:42:00,28.9,26.1,30.01,NW,324,0.0,0.0,89,0.00,,,0.00,0,WeatherCatV1.20B785,2013-12-04 09:42:00,
2013-12-04 04:45:00,28.8,26.0,30.01,NW,324,0.0,0.0,89,0.00,,,0.00,0,WeatherCatV1.20B785,2013-12-04 09:45:00,
2013-12-04 04:46:00,28.8,26.0,30.01,NW,324,0.0,0.0,89,0.00,,,0.00,0,WeatherCatV1.20B785,2013-12-04 09:46:00,
2013-12-04 04:47:00,28.8,26.0,30.01,NW,324,0.0,0.0,89,0.00,,,0.00,0,WeatherCatV1.20B785,2013-12-04 09:47:00,
2013-12-04 04:50:00,28.7,25.9,30.01,NW,324,0.0,0.0,89,0.00,,,0.00,0,WeatherCatV1.20B785,2013-12-04 09:50:00,
2013-12-04 04:51:00,28.7,25.9,30.01,NW,324,0.0,0.0,89,0.00,,,0.00,0,WeatherCatV1.20B785,2013-12-04 09:51:00,
2013-12-04 04:52:00,28.6,25.8,30.01,NW,324,0.0,0.0,89,0.00,,,0.00,0,WeatherCatV1.20B785,2013-12-04 09:52:00,
2013-12-04 04:53:00,28.6,25.8,30.01,NW,324,0.0,0.0,89,0.00,,,0.00,0,WeatherCatV1.20B785,2013-12-04 09:53:00,
2013-12-04 04:55:00,28.6,25.8,30.01,NW,324,0.0,0.0,89,0.00,,,0.00,0,WeatherCatV1.20B785,2013-12-04 09:55:00,
2013-12-04 04:56:00,28.5,25.7,30.01,NW,324,0.0,0.0,89,0.00,,,0.00,0,WeatherCatV1.20B785,2013-12-04 09:56:00,
2013-12-04 04:57:00,28.5,25.7,30.01,NW,324,0.0,0.0,89,0.00,,,0.00,0,WeatherCatV1.20B785,2013-12-04 09:57:00,
2013-12-04 04:59:00,28.5,25.7,30.01,NW,324,0.0,0.0,89,0.00,,,0.00,0,WeatherCatV1.20B785,2013-12-04 09:59:00,
2013-12-04 05:01:00,28.4,25.9,30.01,NW,324,0.0,0.0,90,0.00,,,0.00,0,WeatherCatV1.20B785,2013-12-04 10:01:00,
2013-12-04 05:02:00,28.4,25.9,30.01,NW,324,0.0,0.0,90,0.00,,,0.00,0,WeatherCatV1.20B785,2013-12-04 10:02:00,
2013-12-04 05:03:00,28.4,25.9,30.01,NW,324,0.0,0.0,90,0.00,,,0.00,0,WeatherCatV1.20B785,2013-12-04 10:03:00,
2013-12-04 05:05:00,28.4,25.6,30.01,NW,324,0.0,0.0,89,0.00,,,0.00,0,WeatherCatV1.20B785,2013-12-04 10:05:00,
2013-12-04 05:06:00,28.4,25.6,30.01,NW,324,0.0,0.0,89,0.00,,,0.00,0,WeatherCatV1.20B785,2013-12-04 10:06:00,
2013-12-04 05:07:00,28.4,25.6,30.01,NW,324,0.0,0.0,89,0.00,,,0.00,0,WeatherCatV1.20B785,2013-12-04 10:07:00,
2013-12-04 05:08:00,28.4,25.6,30.01,NW,324,0.0,0.0,89,0.00,,,0.00,0,WeatherCatV1.20B785,2013-12-04 10:08:00,
2013-12-04 05:10:00,28.4,25.6,30.02,NW,324,0.0,0.0,89,0.00,,,0.00,0,WeatherCatV1.20B785,2013-12-04 10:10:00,
2013-12-04 05:11:00,28.4,25.6,30.02,NW,324,0.0,0.0,89,0.00,,,0.00,0,WeatherCatV1.20B785,2013-12-04 10:11:00,
2013-12-04 05:12:00,28.4,25.6,30.02,NW,324,0.0,0.0,89,0.00,,,0.00,0,WeatherCatV1.20B785,2013-12-04 10:12:00,
2013-12-04 05:13:00,28.4,25.6,30.02,NW,324,0.0,0.0,89,0.00,,,0.00,0,WeatherCatV1.20B785,2013-12-04 10:13:00,
2013-12-04 05:15:00,28.4,25.6,30.01,NW,324,0.0,0.0,89,0.00,,,0.00,0,WeatherCatV1.20B785,2013-12-04 10:15:00,
2013-12-04 05:17:00,28.4,25.6,30.01,NW,324,0.0,0.0,89,0.00,,,0.00,0,WeatherCatV1.20B785,2013-12-04 10:17:00,
2013-12-04 05:18:00,28.4,25.6,30.01,NW,324,0.0,0.0,89,0.00,,,0.00,0,WeatherCatV1.20B785,2013-12-04 10:18:00,
2013-12-04 05:22:00,28.4,25.6,30.02,NW,324,0.0,0.0,89,0.00,,,0.00,0,WeatherCatV1.20B785,2013-12-04 10:22:00,
2013-12-04 05:23:00,28.4,25.6,30.02,NW,324,0.0,0.0,89,0.00,,,0.00,0,WeatherCatV1.20B785,2013-12-04 10:23:00,
2013-12-04 05:30:00,28.3,25.5,30.01,NW,324,0.0,0.0,89,0.00,,,0.00,0,WeatherCatV1.20B785,2013-12-04 10:30:00,
2013-12-04 05:31:00,28.3,25.5,30.01,NW,324,0.0,0.0,89,0.00,,,0.00,0,WeatherCatV1.20B785,2013-12-04 10:31:00,
2013-12-04 05:35:00,28.2,25.4,30.01,NW,324,0.0,0.0,89,0.00,,,0.00,0,WeatherCatV1.20B785,2013-12-04 10:35:00,
2013-12-04 05:36:00,28.2,25.4,30.01,NW,324,0.0,0.0,89,0.00,,,0.00,0,WeatherCatV1.20B785,2013-12-04 10:36:00,
2013-12-04 05:38:00,28.2,25.4,30.01,NW,324,0.0,0.0,89,0.00,,,0.00,0,WeatherCatV1.20B785,2013-12-04 10:38:00,
2013-12-04 05:40:00,28.2,25.4,30.01,NW,324,0.0,0.0,89,0.00,,,0.00,0,WeatherCatV1.20B785,2013-12-04 10:40:00,
2013-12-04 05:41:00,28.2,25.4,30.01,NW,324,0.0,0.0,89,0.00,,,0.00,0,WeatherCatV1.20B785,2013-12-04 10:41:00,
2013-12-04 05:44:00,28.4,25.6,30.01,NW,324,0.0,0.0,89,0.00,,,0.00,0,WeatherCatV1.20B785,2013-12-04 10:44:00,
2013-12-04 05:45:00,28.4,25.6,30.02,NW,324,1.0,1.0,89,0.00,,,0.00,0,WeatherCatV1.20B785,2013-12-04 10:45:00,
2013-12-04 05:46:00,28.4,25.3,30.02,NW,324,0.0,1.0,88,0.00,,,0.00,0,WeatherCatV1.20B785,2013-12-04 10:46:00,
2013-12-04 05:49:00,28.5,25.4,30.02,NW,324,0.0,0.0,88,0.00,,,0.00,0,WeatherCatV1.20B785,2013-12-04 10:49:00,
2013-12-04 05:50:00,28.6,25.5,30.02,NW,324,0.0,0.0,88,0.00,,,0.00,0,WeatherCatV1.20B785,2013-12-04 10:50:00,
2013-12-04 05:51:00,28.7,25.6,30.02,NW,324,0.0,0.0,88,0.00,,,0.00,0,WeatherCatV1.20B785,2013-12-04 10:51:00,
2013-12-04 05:52:00,28.7,25.6,30.02,NW,324,0.0,0.0,88,0.00,,,0.00,0,WeatherCatV1.20B785,2013-12-04 10:52:00,
2013-12-04 05:53:00,28.7,25.6,30.02,NW,324,0.0,0.0,88,0.00,,,0.00,0,WeatherCatV1.20B785,2013-12-04 10:53:00,
2013-12-04 05:55:00,28.8,25.7,30.02,NW,324,0.0,0.0,88,0.00,,,0.00,0,WeatherCatV1.20B785,2013-12-04 10:55:00,
2013-12-04 05:56:00,28.9,25.8,30.03,NW,324,0.0,0.0,88,0.00,,,0.00,0,WeatherCatV1.20B785,2013-12-04 10:56:00,
2013-12-04 05:57:00,28.9,25.8,30.03,NW,324,0.0,0.0,88,0.00,,,0.00,0,WeatherCatV1.20B785,2013-12-04 10:57:00,
2013-12-04 05:58:00,28.9,25.8,30.03,NW,324,0.0,0.0,88,0.00,,,0.00,0,WeatherCatV1.20B785,2013-12-04 10:58:00,
2013-12-04 06:01:00,28.8,25.7,30.03,NW,324,0.0,0.0,88,0.00,,,0.00,0,WeatherCatV1.20B785,2013-12-04 11:01:00,
2013-12-04 06:02:00,28.8,25.7,30.03,NW,324,0.0,0.0,88,0.00,,,0.00,0,WeatherCatV1.20B785,2013-12-04 11:02:00,
2013-12-04 06:05:00,28.8,26.0,30.03,NW,324,0.0,0.0,89,0.00,,,0.00,0,WeatherCatV1.20B785,2013-12-04 11:05:00,
2013-12-04 06:06:00,28.8,26.0,30.03,NW,324,0.0,0.0,89,0.00,,,0.00,0,WeatherCatV1.20B785,2013-12-04 11:06:00,
2013-12-04 06:07:00,28.8,25.7,30.03,NW,324,0.0,0.0,88,0.00,,,0.00,0,WeatherCatV1.20B785,2013-12-04 11:07:00,
2013-12-04 06:08:00,28.7,25.9,30.03,NW,324,0.0,0.0,89,0.00,,,0.00,0,WeatherCatV1.20B785,2013-12-04 11:08:00,
2013-12-04 06:11:00,28.7,25.9,30.03,NW,324,0.0,0.0,89,0.00,,,0.00,0,WeatherCatV1.20B785,2013-12-04 11:11:00,
2013-12-04 06:12:00,28.7,25.9,30.03,NW,324,0.0,0.0,89,0.00,,,0.00,0,WeatherCatV1.20B785,2013-12-04 11:12:00,
2013-12-04 06:13:00,28.7,25.9,30.03,NW,324,0.0,0.0,89,0.00,,,0.00,0,WeatherCatV1.20B785,2013-12-04 11:13:00,
2013-12-04 06:17:00,28.7,25.9,30.03,NW,324,0.0,0.0,89,0.00,,,0.00,0,WeatherCatV1.20B785,2013-12-04 11:17:00,
2013-12-04 06:18:00,28.7,25.9,30.03,NW,324,0.0,0.0,89,0.00,,,0.00,0,WeatherCatV1.20B785,2013-12-04 11:18:00,
2013-12-04 06:22:00,28.7,25.9,30.03,NW,324,1.0,1.0,89,0.00,,,0.00,0,WeatherCatV1.20B785,2013-12-04 11:22:00,
2013-12-04 06:23:00,28.7,25.9,30.03,NW,324,1.0,1.0,89,0.00,,,0.00,0,WeatherCatV1.20B785,2013-12-04 11:23:00,
2013-12-04 06:24:00,28.6,25.8,30.03,NW,324,0.0,0.0,89,0.00,,,0.00,0,WeatherCatV1.20B785,2013-12-04 11:24:00,
2013-12-04 06:27:00,28.5,25.7,30.03,NW,324,0.0,0.0,89,0.00,,,0.00,0,WeatherCatV1.20B785,2013-12-04 11:27:00,
2013-12-04 06:28:00,28.5,25.7,30.03,NW,324,0.0,0.0,89,0.00,,,0.00,0,WeatherCatV1.20B785,2013-12-04 11:28:00,
2013-12-04 06:29:00,28.5,25.7,30.03,NW,324,0.0,0.0,89,0.00,,,0.00,0,WeatherCatV1.20B785,2013-12-04 11:29:00,
2013-12-04 06:32:00,28.5,25.7,30.04,NW,324,0.0,0.0,89,0.00,,,0.00,0,WeatherCatV1.20B785,2013-12-04 11:32:00,
2013-12-04 06:34:00,28.5,25.7,30.04,NW,324,0.0,0.0,89,0.00,,,0.00,0,WeatherCatV1.20B785,2013-12-04 11:34:00,
2013-12-04 06:35:00,28.5,25.7,30.04,NW,324,0.0,0.0,89,0.00,,,0.00,0,WeatherCatV1.20B785,2013-12-04 11:35:00,
2013-12-04 06:39:00,28.6,25.8,30.04,NW,324,1.0,2.0,89,0.00,,,0.00,0,WeatherCatV1.20B785,2013-12-04 11:39:00,
2013-12-04 06:40:00,28.6,25.8,30.04,NW,324,1.0,2.0,89,0.00,,,0.00,0,WeatherCatV1.20B785,2013-12-04 11:40:00,
2013-12-04 06:44:00,28.6,25.8,30.04,NW,324,0.0,0.0,89,0.00,,,0.00,0,WeatherCatV1.20B785,2013-12-04 11:44:00,
2013-12-04 06:45:00,28.7,25.9,30.04,NW,324,0.0,0.0,89,0.00,,,0.00,0,WeatherCatV1.20B785,2013-12-04 11:45:00,
2013-12-04 06:46:00,28.7,25.6,30.04,NW,324,0.0,0.0,88,0.00,,,0.00,0,WeatherCatV1.20B785,2013-12-04 11:46:00,
2013-12-04 06:49:00,28.7,25.6,30.04,NW,324,1.0,1.0,88,0.00,,,0.00,0,WeatherCatV1.20B785,2013-12-04 11:49:00,
2013-12-04 06:50:00,28.7,25.6,30.04,NW,324,0.0,1.0,88,0.00,,,0.00,0,WeatherCatV1.20B785,2013-12-04 11:50:00,
2013-12-04 06:51:00,28.7,25.6,30.04,NW,324,0.0,1.0,88,0.00,,,0.00,0,WeatherCatV1.20B785,2013-12-04 11:51:00,
2013-12-04 06:52:00,28.7,25.9,30.04,NW,324,0.0,1.0,89,0.00,,,0.00,0,WeatherCatV1.20B785,2013-12-04 11:52:00,
2013-12-04 06:55:00,28.7,25.9,30.04,NW,324,0.0,1.0,89,0.00,,,0.00,0,WeatherCatV1.20B785,2013-12-04 11:55:00,
2013-12-04 06:56:00,28.7,25.9,30.04,NW,324,0.0,1.0,89,0.00,,,0.00,0,WeatherCatV1.20B785,2013-12-04 11:56:00,
2013-12-04 06:57:00,28.7,25.9,30.04,NW,324,0.0,1.0,89,0.00,,,0.00,0,WeatherCatV1.20B785,2013-12-04 11:57:00,
2013-12-04 06:59:00,28.7,25.6,30.04,NW,324,0.0,0.0,88,0.00,,,0.00,0,WeatherCatV1.20B785,2013-12-04 11:59:00,
2013-12-04 07:01:00,28.7,25.9,30.04,NW,324,0.0,0.0,89,0.00,,,0.00,0,WeatherCatV1.20B785,2013-12-04 12:01:00,
2013-12-04 07:02:00,28.7,25.9,30.04,NW,324,0.0,0.0,89,0.00,,,0.00,0,WeatherCatV1.20B785,2013-12-04 12:02:00,
2013-12-04 07:04:00,28.7,25.9,30.04,NW,324,0.0,0.0,89,0.00,,,0.00,0,WeatherCatV1.20B785,2013-12-04 12:04:00,
2013-12-04 07:06:00,28.7,25.9,30.04,NW,324,0.0,0.0,89,0.00,,,0.00,0,WeatherCatV1.20B785,2013-12-04 12:06:00,
2013-12-04 07:07:00,28.7,25.9,30.04,NW,324,0.0,0.0,89,0.00,,,0.00,0,WeatherCatV1.20B785,2013-12-04 12:07:00,
2013-12-04 07:08:00,28.7,25.9,30.04,NW,324,1.0,1.0,89,0.00,,,0.00,0,WeatherCatV1.20B785,2013-12-04 12:08:00,
2013-12-04 07:09:00,28.7,25.9,30.04,NW,324,1.0,1.0,89,0.00,,,0.00,0,WeatherCatV1.20B785,2013-12-04 12:09:00,
2013-12-04 07:12:00,28.6,25.8,30.04,NW,324,0.0,1.0,89,0.00,,,0.00,0,WeatherCatV1.20B785,2013-12-04 12:12:00,
2013-12-04 07:13:00,28.6,25.8,30.04,NW,324,1.0,1.0,89,0.00,,,0.00,0,WeatherCatV1.20B785,2013-12-04 12:13:00,
2013-12-04 07:15:00,28.5,25.7,30.04,NW,324,1.0,2.0,89,0.00,,,0.00,0,WeatherCatV1.20B785,2013-12-04 12:15:00,
2013-12-04 07:17:00,28.5,25.7,30.04,NW,324,1.0,1.0,89,0.00,,,0.00,5,WeatherCatV1.20B785,2013-12-04 12:17:00,
2013-12-04 07:18:00,28.4,25.6,30.04,NW,324,0.0,0.0,89,0.00,,,0.00,7,WeatherCatV1.20B785,2013-12-04 12:18:00,
2013-12-04 07:20:00,28.5,25.7,30.04,NW,324,0.0,1.0,89,0.00,,,0.00,7,WeatherCatV1.20B785,2013-12-04 12:20:00,
2013-12-04 07:21:00,28.5,25.7,30.04,NW,324,0.0,1.0,89,0.00,,,0.00,7,WeatherCatV1.20B785,2013-12-04 12:21:00,
2013-12-04 07:22:00,28.5,25.7,30.04,NW,324,0.0,1.0,89,0.00,,,0.00,9,WeatherCatV1.20B785,2013-12-04 12:22:00,
2013-12-04 07:23:00,28.5,25.7,30.04,NW,324,0.0,1.0,89,0.00,,,0.00,9,WeatherCatV1.20B785,2013-12-04 12:23:00,
2013-12-04 07:24:00,28.6,25.8,30.04,NW,324,0.0,0.0,89,0.00,,,0.00,9,WeatherCatV1.20B785,2013-12-04 12:24:00,
2013-12-04 07:25:00,28.6,25.5,30.04,NW,324,0.0,0.0,88,0.00,,,0.00,9,WeatherCatV1.20B785,2013-12-04 12:25:00,
2013-12-04 07:26:00,28.7,25.6,30.04,NW,324,0.0,0.0,88,0.00,,,0.00,11,WeatherCatV1.20B785,2013-12-04 12:26:00,
2013-12-04 07:27:00,28.7,25.6,30.04,NW,324,0.0,0.0,88,0.00,,,0.00,11,WeatherCatV1.20B785,2013-12-04 12:27:00,
2013-12-04 07:28:00,28.7,25.6,30.04,NW,324,0.0,0.0,88,0.00,,,0.00,11,WeatherCatV1.20B785,2013-12-04 12:28:00,
2013-12-04 07:30:00,28.7,25.6,30.04,NW,324,0.0,0.0,88,0.00,,,0.00,12,WeatherCatV1.20B785,2013-12-04 12:30:00,
2013-12-04 07:32:00,28.7,25.6,30.04,NW,324,0.0,0.0,88,0.00,,,0.00,14,WeatherCatV1.20B785,2013-12-04 12:32:00,
2013-12-04 07:33:00,28.7,25.6,30.05,NW,324,0.0,0.0,88,0.00,,,0.00,14,WeatherCatV1.20B785,2013-12-04 12:33:00,
2013-12-04 07:35:00,28.7,25.6,30.05,NW,324,0.0,0.0,88,0.00,,,0.00,16,WeatherCatV1.20B785,2013-12-04 12:35:00,
2013-12-04 07:37:00,28.7,25.9,30.05,NW,324,0.0,0.0,89,0.00,,,0.00,18,WeatherCatV1.20B785,2013-12-04 12:37:00,
2013-12-04 07:38:00,28.7,25.9,30.05,NW,324,0.0,0.0,89,0.00,,,0.00,18,WeatherCatV1.20B785,2013-12-04 12:38:00,
2013-12-04 07:39:00,28.7,25.9,30.05,NW,324,0.0,0.0,89,0.00,,,0.00,19,WeatherCatV1.20B785,2013-12-04 12:39:00,
2013-12-04 07:40:00,28.6,25.8,30.05,NW,324,0.0,0.0,89,0.00,,,0.00,21,WeatherCatV1.20B785,2013-12-04 12:40:00,
2013-12-04 07:41:00,28.6,25.8,30.05,NW,324,0.0,0.0,89,0.00,,,0.00,21,WeatherCatV1.20B785,2013-12-04 12:41:00,
2013-12-04 07:42:00,28.6,25.8,30.05,NW,324,0.0,0.0,89,0.00,,,0.00,21,WeatherCatV1.20B785,2013-12-04 12:42:00,
2013-12-04 07:43:00,28.6,25.8,30.05,NW,324,0.0,0.0,89,0.00,,,0.00,21,WeatherCatV1.20B785,2013-12-04 12:43:00,
2013-12-04 07:44:00,28.6,25.8,30.05,NW,324,0.0,0.0,89,0.00,,,0.00,23,WeatherCatV1.20B785,2013-12-04 12:44:00,
2013-12-04 07:46:00,28.6,25.8,30.05,NW,324,0.0,0.0,89,0.00,,,0.00,26,WeatherCatV1.20B785,2013-12-04 12:46:00,
2013-12-04 07:48:00,28.7,25.9,30.05,NW,324,0.0,0.0,89,0.00,,,0.00,30,WeatherCatV1.20B785,2013-12-04 12:48:00,
2013-12-04 07:49:00,28.7,25.9,30.05,NW,324,0.0,0.0,89,0.00,,,0.00,32,WeatherCatV1.20B785,2013-12-04 12:49:00,
2013-12-04 07:50:00,28.7,25.9,30.05,NW,324,0.0,0.0,89,0.00,,,0.00,32,WeatherCatV1.20B785,2013-12-04 12:50:00,
2013-12-04 07:51:00,28.7,25.9,30.05,NW,324,0.0,0.0,89,0.00,,,0.00,33,WeatherCatV1.20B785,2013-12-04 12:51:00,
2013-12-04 07:54:00,28.8,26.0,30.05,NW,324,0.0,0.0,89,0.00,,,0.00,39,WeatherCatV1.20B785,2013-12-04 12:54:00,
2013-12-04 07:55:00,28.8,26.0,30.05,NW,324,0.0,0.0,89,0.00,,,0.00,39,WeatherCatV1.20B785,2013-12-04 12:55:00,
2013-12-04 07:56:00,28.8,26.0,30.05,NW,324,0.0,0.0,89,0.00,,,0.00,42,WeatherCatV1.20B785,2013-12-04 12:56:00,
2013-12-04 07:57:00,28.8,26.0,30.05,NW,324,0.0,0.0,89,0.00,,,0.00,42,WeatherCatV1.20B785,2013-12-04 12:57:00,
2013-12-04 07:59:00,28.9,25.8,30.05,NW,324,0.0,0.0,88,0.00,,,0.00,47,WeatherCatV1.20B785,2013-12-04 12:59:00,
2013-12-04 08:00:00,29.0,25.9,30.05,NW,324,0.0,0.0,88,0.00,,,0.00,47,WeatherCatV1.20B785,2013-12-04 13:00:00,
2013-12-04 08:02:00,29.0,25.9,30.06,NW,324,0.0,0.0,88,0.00,,,0.00,54,WeatherCatV1.20B785,2013-12-04 13:02:00,
2013-12-04 08:04:00,29.2,26.1,30.06,NW,324,0.0,0.0,88,0.00,,,0.00,56,WeatherCatV1.20B785,2013-12-04 13:04:00,
2013-12-04 08:05:00,29.2,26.1,30.06,NW,324,0.0,0.0,88,0.00,,,0.00,60,WeatherCatV1.20B785,2013-12-04 13:05:00,
2013-12-04 08:07:00,29.3,26.2,30.06,NW,324,0.0,0.0,88,0.00,,,0.00,60,WeatherCatV1.20B785,2013-12-04 13:07:00,
2013-12-04 08:08:00,29.4,26.3,30.06,NW,324,0.0,0.0,88,0.00,,,0.00,65,WeatherCatV1.20B785,2013-12-04 13:08:00,
2013-12-04 08:09:00,29.5,26.4,30.06,NW,324,0.0,1.0,88,0.00,,,0.00,67,WeatherCatV1.20B785,2013-12-04 13:09:00,
2013-12-04 08:10:00,29.5,26.4,30.06,NW,324,0.0,1.0,88,0.00,,,0.00,67,WeatherCatV1.20B785,2013-12-04 13:10:00,
2013-12-04 08:13:00,29.8,26.7,30.06,NW,324,0.0,0.0,88,0.00,,,0.00,65,WeatherCatV1.20B785,2013-12-04 13:13:00,
2013-12-04 08:14:00,29.8,26.7,30.06,NW,324,0.0,0.0,88,0.00,,,0.00,63,WeatherCatV1.20B785,2013-12-04 13:14:00,
2013-12-04 08:15:00,29.8,26.7,30.06,NW,324,0.0,0.0,88,0.00,,,0.00,62,WeatherCatV1.20B785,2013-12-04 13:15:00,
2013-12-04 08:18:00,30.1,27.0,30.07,NW,324,0.0,0.0,88,0.00,,,0.00,69,WeatherCatV1.20B785,2013-12-04 13:18:00,
2013-12-04 08:19:00,30.2,27.1,30.07,NW,324,1.0,1.0,88,0.00,,,0.00,69,WeatherCatV1.20B785,2013-12-04 13:19:00,
2013-12-04 08:20:00,30.3,27.2,30.07,NW,324,0.0,1.0,88,0.00,,,0.00,91,WeatherCatV1.20B785,2013-12-04 13:20:00,
2013-12-04 08:21:00,30.3,27.2,30.06,NW,324,0.0,0.0,88,0.00,,,0.00,86,WeatherCatV1.20B785,2013-12-04 13:21:00,
2013-12-04 08:23:00,30.5,27.4,30.07,NW,324,0.0,0.0,88,0.00,,,0.00,62,WeatherCatV1.20B785,2013-12-04 13:23:00,
2013-12-04 08:24:00,30.6,27.5,30.07,NW,324,0.0,0.0,88,0.00,,,0.00,63,WeatherCatV1.20B785,2013-12-04 13:24:00,
2013-12-04 08:25:00,30.7,27.6,30.07,NW,324,0.0,0.0,88,0.00,,,0.00,77,WeatherCatV1.20B785,2013-12-04 13:25:00,
2013-12-04 08:26:00,30.7,27.6,30.07,NW,324,0.0,0.0,88,0.00,,,0.00,77,WeatherCatV1.20B785,2013-12-04 13:26:00,
2013-12-04 08:27:00,30.8,27.7,30.07,NW,324,0.0,0.0,88,0.00,,,0.00,77,WeatherCatV1.20B785,2013-12-04 13:27:00,
2013-12-04 08:29:00,30.9,27.8,30.07,NW,324,0.0,0.0,88,0.00,,,0.00,93,WeatherCatV1.20B785,2013-12-04 13:29:00,
2013-12-04 08:31:00,31.1,28.0,30.07,NW,324,0.0,0.0,88,0.00,,,0.00,97,WeatherCatV1.20B785,2013-12-04 13:31:00,
2013-12-04 08:32:00,31.2,28.1,30.08,NW,324,0.0,0.0,88,0.00,,,0.00,90,WeatherCatV1.20B785,2013-12-04 13:32:00,
2013-12-04 08:35:00,31.4,28.3,30.08,NW,324,0.0,1.0,88,0.00,,,0.00,107,WeatherCatV1.20B785,2013-12-04 13:35:00,
2013-12-04 08:36:00,31.5,28.4,30.07,NW,324,0.0,0.0,88,0.00,,,0.00,116,WeatherCatV1.20B785,2013-12-04 13:36:00,
2013-12-04 08:37:00,31.7,28.6,30.08,NW,324,0.0,0.0,88,0.00,,,0.00,120,WeatherCatV1.20B785,2013-12-04 13:37:00,
2013-12-04 08:38:00,31.8,28.7,30.08,NW,324,0.0,0.0,88,0.00,,,0.00,118,WeatherCatV1.20B785,2013-12-04 13:38:00,
2013-12-04 08:40:00,32.0,28.9,30.08,NW,324,0.0,0.0,88,0.00,,,0.00,113,WeatherCatV1.20B785,2013-12-04 13:40:00,
2013-12-04 08:41:00,32.1,29.0,30.08,NW,324,0.0,0.0,88,0.00,,,0.00,105,WeatherCatV1.20B785,2013-12-04 13:41:00,
2013-12-04 08:42:00,32.2,29.0,30.08,NW,324,0.0,0.0,88,0.00,,,0.00,104,WeatherCatV1.20B785,2013-12-04 13:42:00,
2013-12-04 08:43:00,32.3,29.1,30.08,NW,324,0.0,0.0,88,0.00,,,0.00,107,WeatherCatV1.20B785,2013-12-04 13:43:00,
2013-12-04 08:44:00,32.5,29.4,30.08,NW,324,0.0,0.0,88,0.00,,,0.00,107,WeatherCatV1.20B785,2013-12-04 13:44:00,
2013-12-04 08:45:00,32.6,29.5,30.08,NW,324,0.0,0.0,88,0.00,,,0.00,109,WeatherCatV1.20B785,2013-12-04 13:45:00,
2013-12-04 08:48:00,33.0,29.8,30.08,NW,324,0.0,0.0,88,0.00,,,0.00,134,WeatherCatV1.20B785,2013-12-04 13:48:00,
2013-12-04 08:50:00,33.3,30.1,30.08,NW,324,0.0,1.0,88,0.00,,,0.00,148,WeatherCatV1.20B785,2013-12-04 13:50:00,
2013-12-04 08:51:00,33.5,30.3,30.08,NW,324,0.0,0.0,88,0.00,,,0.00,151,WeatherCatV1.20B785,2013-12-04 13:51:00,
2013-12-04 08:53:00,33.7,30.5,30.08,NW,324,1.0,1.0,88,0.00,,,0.00,142,WeatherCatV1.20B785,2013-12-04 13:53:00,
2013-12-04 08:55:00,33.9,30.7,30.08,NW,324,0.0,1.0,88,0.00,,,0.00,137,WeatherCatV1.20B785,2013-12-04 13:55:00,
2013-12-04 08:56:00,34.0,30.8,30.08,NW,324,0.0,0.0,88,0.00,,,0.00,163,WeatherCatV1.20B785,2013-12-04 13:56:00,
2013-12-04 08:57:00,34.0,30.8,30.08,NW,324,0.0,0.0,88,0.00,,,0.00,163,WeatherCatV1.20B785,2013-12-04 13:57:00,
2013-12-04 08:58:00,34.1,30.9,30.08,NW,324,0.0,1.0,88,0.00,,,0.00,162,WeatherCatV1.20B785,2013-12-04 13:58:00,
2013-12-04 08:59:00,34.1,30.9,30.08,NW,324,1.0,1.0,88,0.00,,,0.00,162,WeatherCatV1.20B785,2013-12-04 13:59:00,
2013-12-04 09:01:00,34.2,31.0,30.08,NW,324,1.0,2.0,88,0.00,,,0.00,156,WeatherCatV1.20B785,2013-12-04 14:01:00,
2013-12-04 09:02:00,34.2,31.0,30.08,NW,324,1.0,2.0,88,0.00,,,0.00,153,WeatherCatV1.20B785,2013-12-04 14:02:00,
2013-12-04 09:03:00,34.3,31.1,30.08,NW,324,1.0,2.0,88,0.00,,,0.00,153,WeatherCatV1.20B785,2013-12-04 14:03:00,
2013-12-04 09:04:00,34.3,31.1,30.08,NW,324,2.0,2.0,88,0.00,,,0.00,153,WeatherCatV1.20B785,2013-12-04 14:04:00,
2013-12-04 09:06:00,34.5,31.3,30.08,NW,323,2.0,2.0,88,0.00,,,0.00,146,WeatherCatV1.20B785,2013-12-04 14:06:00,
2013-12-04 09:08:00,34.6,31.4,30.08,NW,323,0.0,2.0,88,0.00,,,0.00,155,WeatherCatV1.20B785,2013-12-04 14:08:00,
2013-12-04 09:09:00,34.6,31.4,30.08,NW,323,1.0,1.0,88,0.00,,,0.00,155,WeatherCatV1.20B785,2013-12-04 14:09:00,
2013-12-04 09:13:00,34.9,31.7,30.09,NW,323,0.0,1.0,88,0.00,,,0.00,139,WeatherCatV1.20B785,2013-12-04 14:13:00,
2013-12-04 09:14:00,35.0,31.8,30.09,NW,323,0.0,0.0,88,0.00,,,0.00,139,WeatherCatV1.20B785,2013-12-04 14:14:00,
2013-12-04 09:15:00,35.0,31.8,30.09,NW,323,0.0,0.0,88,0.00,,,0.00,135,WeatherCatV1.20B785,2013-12-04 14:15:00,
2013-12-04 09:19:00,35.4,32.2,30.09,NW,323,0.0,1.0,88,0.00,,,0.00,155,WeatherCatV1.20B785,2013-12-04 14:19:00,
2013-12-04 09:20:00,35.6,32.4,30.09,NW,323,0.0,0.0,88,0.00,,,0.00,158,WeatherCatV1.20B785,2013-12-04 14:20:00,
2013-12-04 09:21:00,35.6,32.4,30.09,NW,323,0.0,0.0,88,0.00,,,0.00,163,WeatherCatV1.20B785,2013-12-04 14:21:00,
2013-12-04 09:24:00,36.0,33.1,30.09,NW,323,0.0,1.0,89,0.00,,,0.00,158,WeatherCatV1.20B785,2013-12-04 14:24:00,
2013-12-04 09:25:00,36.1,33.2,30.09,NW,323,0.0,1.0,89,0.00,,,0.00,149,WeatherCatV1.20B785,2013-12-04 14:25:00,
2013-12-04 09:26:00,36.2,33.3,30.09,NW,323,0.0,0.0,89,0.00,,,0.00,146,WeatherCatV1.20B785,2013-12-04 14:26:00,
2013-12-04 09:27:00,36.3,33.4,30.09,NW,323,0.0,0.0,89,0.00,,,0.00,165,WeatherCatV1.20B785,2013-12-04 14:27:00,
2013-12-04 09:29:00,36.5,33.8,30.09,NW,323,0.0,1.0,90,0.00,,,0.00,181,WeatherCatV1.20B785,2013-12-04 14:29:00,
2013-12-04 09:30:00,36.7,34.0,30.09,NW,323,0.0,1.0,90,0.00,,,0.00,185,WeatherCatV1.20B785,2013-12-04 14:30:00,
2013-12-04 09:31:00,36.8,34.2,30.09,NW,323,0.0,0.0,90,0.00,,,0.00,193,WeatherCatV1.20B785,2013-12-04 14:31:00,
2013-12-04 09:32:00,36.8,34.2,30.09,NW,323,0.0,0.0,90,0.00,,,0.00,193,WeatherCatV1.20B785,2013-12-04 14:32:00,
2013-12-04 09:34:00,37.1,34.4,30.09,NW,323,0.0,0.0,90,0.00,,,0.00,183,WeatherCatV1.20B785,2013-12-04 14:34:00,
2013-12-04 09:36:00,37.3,34.6,30.09,NW,323,0.0,1.0,90,0.00,,,0.00,190,WeatherCatV1.20B785,2013-12-04 14:36:00,
2013-12-04 09:37:00,37.5,34.8,30.09,NW,323,0.0,1.0,90,0.00,,,0.00,190,WeatherCatV1.20B785,2013-12-04 14:37:00,
2013-12-04 09:38:00,37.6,34.9,30.09,SE,128,2.0,2.0,90,0.00,,,0.00,186,WeatherCatV1.20B785,2013-12-04 14:38:00,
2013-12-04 09:39:00,37.8,35.1,30.09,SE,133,0.0,2.0,90,0.00,,,0.00,190,WeatherCatV1.20B785,2013-12-04 14:39:00,
2013-12-04 09:40:00,37.8,35.1,30.09,SE,133,1.0,2.0,90,0.00,,,0.00,202,WeatherCatV1.20B785,2013-12-04 14:40:00,
2013-12-04 09:41:00,38.0,35.3,30.09,SE,133,0.0,2.0,90,0.00,,,0.00,207,WeatherCatV1.20B785,2013-12-04 14:41:00,
2013-12-04 09:42:00,38.1,35.4,30.09,SE,133,1.0,1.0,90,0.00,,,0.00,206,WeatherCatV1.20B785,2013-12-04 14:42:00,
2013-12-04 09:43:00,38.2,35.5,30.09,SE,133,1.0,2.0,90,0.00,,,0.00,204,WeatherCatV1.20B785,2013-12-04 14:43:00,
2013-12-04 09:44:00,38.3,35.3,30.10,East,96,1.0,2.0,89,0.00,,,0.00,192,WeatherCatV1.20B785,2013-12-04 14:44:00,
2013-12-04 09:45:00,38.3,35.3,30.10,East,96,1.0,2.0,89,0.00,,,0.00,192,WeatherCatV1.20B785,2013-12-04 14:45:00,
2013-12-04 09:46:00,38.4,35.7,30.09,East,96,2.0,2.0,90,0.00,,,0.00,190,WeatherCatV1.20B785,2013-12-04 14:46:00,
2013-12-04 09:48:00,38.4,35.5,30.09,East,96,2.0,2.0,89,0.00,,,0.00,192,WeatherCatV1.20B785,2013-12-04 14:48:00,
2013-12-04 09:49:00,38.5,35.5,30.09,East,96,2.0,2.0,89,0.00,,,0.00,200,WeatherCatV1.20B785,2013-12-04 14:49:00,
2013-12-04 09:50:00,38.5,35.5,30.09,East,96,2.0,3.0,89,0.00,,,0.00,200,WeatherCatV1.20B785,2013-12-04 14:50:00,
2013-12-04 09:51:00,38.5,35.5,30.09,East,96,1.0,2.0,89,0.00,,,0.00,202,WeatherCatV1.20B785,2013-12-04 14:51:00,
2013-12-04 09:53:00,38.6,35.6,30.09,East,96,0.0,2.0,89,0.00,,,0.00,155,WeatherCatV1.20B785,2013-12-04 14:53:00,
2013-12-04 09:55:00,38.6,35.6,30.09,East,79,0.0,2.0,89,0.00,,,0.00,156,WeatherCatV1.20B785,2013-12-04 14:55:00,
2013-12-04 09:56:00,38.6,35.6,30.09,East,79,0.0,2.0,89,0.00,,,0.00,176,WeatherCatV1.20B785,2013-12-04 14:56:00,
2013-12-04 09:58:00,38.7,35.7,30.09,East,79,0.0,1.0,89,0.00,,,0.00,190,WeatherCatV1.20B785,2013-12-04 14:58:00,
2013-12-04 10:00:00,38.8,35.8,30.09,East,79,0.0,1.0,89,0.00,,,0.00,206,WeatherCatV1.20B785,2013-12-04 15:00:00,
2013-12-04 10:01:00,38.9,35.9,30.09,East,79,1.0,2.0,89,0.00,,,0.00,213,WeatherCatV1.20B785,2013-12-04 15:01:00,
2013-12-04 10:04:00,39.0,36.0,30.09,East,79,0.0,1.0,89,0.00,,,0.00,229,WeatherCatV1.20B785,2013-12-04 15:04:00,
2013-12-04 10:05:00,39.1,36.1,30.09,East,79,1.0,2.0,89,0.00,,,0.00,237,WeatherCatV1.20B785,2013-12-04 15:05:00,
2013-12-04 10:07:00,39.4,36.4,30.09,ENE,64,2.0,3.0,89,0.00,,,0.00,251,WeatherCatV1.20B785,2013-12-04 15:07:00,
2013-12-04 10:09:00,39.5,36.5,30.09,ENE,64,0.0,3.0,89,0.00,,,0.00,251,WeatherCatV1.20B785,2013-12-04 15:09:00,
2013-12-04 10:10:00,39.6,36.6,30.09,NE,52,1.0,2.0,89,0.00,,,0.00,255,WeatherCatV1.20B785,2013-12-04 15:10:00,
2013-12-04 10:11:00,39.7,36.7,30.09,NE,53,1.0,2.0,89,0.00,,,0.00,253,WeatherCatV1.20B785,2013-12-04 15:11:00,
2013-12-04 10:12:00,39.9,36.9,30.09,NE,53,1.0,2.0,89,0.00,,,0.00,267,WeatherCatV1.20B785,2013-12-04 15:12:00,
2013-12-04 10:14:00,40.0,36.7,30.09,NE,53,0.0,1.0,88,0.00,,,0.00,276,WeatherCatV1.20B785,2013-12-04 15:14:00,
2013-12-04 10:15:00,40.2,36.9,30.09,NE,53,1.0,1.0,88,0.00,,,0.00,269,WeatherCatV1.20B785,2013-12-04 15:15:00,
2013-12-04 10:16:00,40.3,37.0,30.09,NE,53,0.0,1.0,88,0.00,,,0.00,243,WeatherCatV1.20B785,2013-12-04 15:16:00,
2013-12-04 10:18:00,40.5,37.2,30.09,East,84,1.0,2.0,88,0.00,,,0.00,218,WeatherCatV1.20B785,2013-12-04 15:18:00,
2013-12-04 10:19:00,40.7,37.4,30.09,East,84,1.0,2.0,88,0.00,,,0.00,211,WeatherCatV1.20B785,2013-12-04 15:19:00,
2013-12-04 10:20:00,40.7,37.4,30.09,East,84,1.0,2.0,88,0.00,,,0.00,202,WeatherCatV1.20B785,2013-12-04 15:20:00,
2013-12-04 10:21:00,40.9,37.6,30.09,East,83,1.0,2.0,88,0.00,,,0.00,192,WeatherCatV1.20B785,2013-12-04 15:21:00,
2013-12-04 10:23:00,41.0,37.4,30.09,East,79,0.0,2.0,87,0.00,,,0.00,183,WeatherCatV1.20B785,2013-12-04 15:23:00,
2013-12-04 10:24:00,41.2,37.6,30.09,ENE,62,0.0,4.0,87,0.00,,,0.00,190,WeatherCatV1.20B785,2013-12-04 15:24:00,
2013-12-04 10:26:00,41.3,37.4,30.09,NNE,27,1.0,3.0,86,0.00,,,0.00,178,WeatherCatV1.20B785,2013-12-04 15:26:00,
2013-12-04 10:27:00,41.4,37.5,30.09,NNE,27,2.0,3.0,86,0.00,,,0.00,178,WeatherCatV1.20B785,2013-12-04 15:27:00,
2013-12-04 10:29:00,41.5,37.9,30.09,NE,55,2.0,4.0,87,0.00,,,0.00,169,WeatherCatV1.20B785,2013-12-04 15:29:00,
2013-12-04 10:31:00,41.7,37.8,30.09,ENE,68,1.0,3.0,86,0.00,,,0.00,158,WeatherCatV1.20B785,2013-12-04 15:31:00,
2013-12-04 10:32:00,41.7,37.8,30.09,ENE,61,3.0,3.0,86,0.00,,,0.00,158,WeatherCatV1.20B785,2013-12-04 15:32:00,
2013-12-04 10:35:00,41.9,38.0,30.09,NE,53,3.0,4.0,86,0.00,,,0.00,156,WeatherCatV1.20B785,2013-12-04 15:35:00,
2013-12-04 10:36:00,42.0,37.8,30.09,ENE,73,2.0,2.0,85,0.00,,,0.00,158,WeatherCatV1.20B785,2013-12-04 15:36:00,
2013-12-04 10:37:00,42.0,38.1,30.09,ENE,73,1.0,2.0,86,0.00,,,0.00,158,WeatherCatV1.20B785,2013-12-04 15:37:00,
2013-12-04 10:40:00,42.3,38.4,30.09,NE,44,2.0,3.0,86,0.00,,,0.00,167,WeatherCatV1.20B785,2013-12-04 15:40:00,
2013-12-04 10:42:00,42.5,38.6,30.09,East,86,1.0,3.0,86,0.00,,,0.00,172,WeatherCatV1.20B785,2013-12-04 15:42:00,
2013-12-04 10:45:00,42.8,38.9,30.09,ENE,67,1.0,2.0,86,0.00,,,0.00,162,WeatherCatV1.20B785,2013-12-04 15:45:00,
2013-12-04 10:46:00,43.0,38.8,30.09,NE,56,1.0,4.0,85,0.00,,,0.00,165,WeatherCatV1.20B785,2013-12-04 15:46:00,
2013-12-04 10:47:00,43.1,38.9,30.09,ENE,73,1.0,4.0,85,0.00,,,0.00,167,WeatherCatV1.20B785,2013-12-04 15:47:00,
2013-12-04 10:48:00,43.1,38.9,30.09,ENE,69,1.0,3.0,85,0.00,,,0.00,172,WeatherCatV1.20B785,2013-12-04 15:48:00,
2013-12-04 10:50:00,43.5,39.3,30.09,NE,46,3.0,3.0,85,0.00,,,0.00,178,WeatherCatV1.20B785,2013-12-04 15:50:00,
2013-12-04 10:51:00,43.6,39.4,30.09,NE,36,2.0,3.0,85,0.00,,,0.00,176,WeatherCatV1.20B785,2013-12-04 15:51:00,
2013-12-04 10:52:00,43.7,39.2,30.09,NE,52,3.0,5.0,84,0.00,,,0.00,183,WeatherCatV1.20B785,2013-12-04 15:52:00,
2013-12-04 10:53:00,43.9,39.4,30.09,NE,39,3.0,5.0,84,0.00,,,0.00,234,WeatherCatV1.20B785,2013-12-04 15:53:00,
2013-12-04 10:56:00,44.2,39.4,30.09,NE,42,3.0,5.0,83,0.00,,,0.00,272,WeatherCatV1.20B785,2013-12-04 15:56:00,
2013-12-04 10:57:00,44.3,39.8,30.09,NE,36,2.0,5.0,84,0.00,,,0.00,272,WeatherCatV1.20B785,2013-12-04 15:57:00,
2013-12-04 10:59:00,44.6,39.8,30.09,NE,49,4.0,4.0,83,0.00,,,0.00,401,WeatherCatV1.20B785,2013-12-04 15:59:00,
2013-12-04 11:01:00,45.1,39.9,30.08,ENE,57,3.0,6.0,82,0.00,,,0.00,381,WeatherCatV1.20B785,2013-12-04 16:01:00,
2013-12-04 11:02:00,45.2,39.7,30.08,North,350,3.0,6.0,81,0.00,,,0.00,345,WeatherCatV1.20B785,2013-12-04 16:02:00,
2013-12-04 11:03:00,45.2,39.7,30.08,NE,35,2.0,6.0,81,0.00,,,0.00,383,WeatherCatV1.20B785,2013-12-04 16:03:00,
2013-12-04 11:04:00,45.4,39.9,30.08,NE,38,2.0,4.0,81,0.00,,,0.00,374,WeatherCatV1.20B785,2013-12-04 16:04:00,
2013-12-04 11:05:00,45.5,40.0,30.08,NE,56,2.0,4.0,81,0.00,,,0.00,408,WeatherCatV1.20B785,2013-12-04 16:05:00,
2013-12-04 11:06:00,45.7,40.2,30.08,NNE,17,1.0,3.0,81,0.00,,,0.00,313,WeatherCatV1.20B785,2013-12-04 16:06:00,
2013-12-04 11:08:00,45.8,40.3,30.08,NE,44,3.0,4.0,81,0.00,,,0.00,244,WeatherCatV1.20B785,2013-12-04 16:08:00,
2013-12-04 11:09:00,46.1,40.6,30.08,ENE,68,5.0,5.0,81,0.00,,,0.00,192,WeatherCatV1.20B785,2013-12-04 16:09:00,
2013-12-04 11:10:00,46.2,40.4,30.08,NE,56,3.0,5.0,80,0.00,,,0.00,186,WeatherCatV1.20B785,2013-12-04 16:10:00,
2013-12-04 11:12:00,46.5,41.0,30.08,NE,48,2.0,3.0,81,0.00,,,0.00,188,WeatherCatV1.20B785,2013-12-04 16:12:00,
2013-12-04 11:13:00,46.6,41.1,30.08,NE,56,2.0,3.0,81,0.00,,,0.00,176,WeatherCatV1.20B785,2013-12-04 16:13:00,
2013-12-04 11:15:00,46.8,40.6,30.08,NE,46,3.0,6.0,79,0.00,,,0.00,176,WeatherCatV1.20B785,2013-12-04 16:15:00,
2013-12-04 11:16:00,47.0,40.5,30.08,ENE,61,2.0,6.0,78,0.00,,,0.00,186,WeatherCatV1.20B785,2013-12-04 16:16:00,
2013-12-04 11:18:00,47.2,41.0,30.08,NE,49,1.0,2.0,79,0.00,,,0.00,258,WeatherCatV1.20B785,2013-12-04 16:18:00,
2013-12-04 11:20:00,47.3,41.1,30.08,ESE,102,3.0,3.0,79,0.00,,,0.00,350,WeatherCatV1.20B785,2013-12-04 16:20:00,
2013-12-04 11:21:00,47.4,41.2,30.08,East,88,3.0,3.0,79,0.00,,,0.00,388,WeatherCatV1.20B785,2013-12-04 16:21:00,
2013-12-04 11:22:00,47.7,41.2,30.08,ENE,75,2.0,4.0,78,0.00,,,0.00,388,WeatherCatV1.20B785,2013-12-04 16:22:00,
2013-12-04 11:23:00,47.8,40.9,30.08,NE,51,0.0,4.0,77,0.00,,,0.00,406,WeatherCatV1.20B785,2013-12-04 16:23:00,
2013-12-04 11:24:00,47.8,40.9,30.08,NNE,29,2.0,4.0,77,0.00,,,0.00,406,WeatherCatV1.20B785,2013-12-04 16:24:00,
2013-12-04 11:25:00,48.0,41.1,30.08,ENE,57,1.0,3.0,77,0.00,,,0.00,422,WeatherCatV1.20B785,2013-12-04 16:25:00,
2013-12-04 11:26:00,48.1,41.2,30.07,ENE,67,4.0,4.0,77,0.00,,,0.00,436,WeatherCatV1.20B785,2013-12-04 16:26:00,
2013-12-04 11:27:00,48.2,41.3,30.08,ENE,63,3.0,4.0,77,0.00,,,0.00,438,WeatherCatV1.20B785,2013-12-04 16:27:00,
2013-12-04 11:28:00,48.3,41.1,30.07,East,83,1.0,4.0,76,0.00,,,0.00,422,WeatherCatV1.20B785,2013-12-04 16:28:00,
2013-12-04 11:29:00,48.3,41.1,30.07,East,83,1.0,2.0,76,0.00,,,0.00,422,WeatherCatV1.20B785,2013-12-04 16:29:00,
2013-12-04 11:31:00,48.5,41.3,30.07,NE,44,1.0,3.0,76,0.00,,,0.00,432,WeatherCatV1.20B785,2013-12-04 16:31:00,
2013-12-04 11:33:00,48.6,41.4,30.07,NNE,12,2.0,2.0,76,0.00,,,0.00,292,WeatherCatV1.20B785,2013-12-04 16:33:00,
2013-12-04 11:34:00,48.8,41.2,30.07,NE,44,3.0,4.0,75,0.00,,,0.00,301,WeatherCatV1.20B785,2013-12-04 16:34:00,
2013-12-04 11:36:00,48.9,41.3,30.07,NE,37,1.0,4.0,75,0.00,,,0.00,214,WeatherCatV1.20B785,2013-12-04 16:36:00,
2013-12-04 11:37:00,49.1,41.5,30.07,NE,34,1.0,2.0,75,0.00,,,0.00,181,WeatherCatV1.20B785,2013-12-04 16:37:00,
2013-12-04 11:38:00,49.2,41.6,30.07,NNE,30,1.0,2.0,75,0.00,,,0.00,176,WeatherCatV1.20B785,2013-12-04 16:38:00,
2013-12-04 11:39:00,49.3,41.4,30.07,ENE,63,2.0,2.0,74,0.00,,,0.00,213,WeatherCatV1.20B785,2013-12-04 16:39:00,
2013-12-04 11:41:00,49.5,41.9,30.07,East,89,1.0,4.0,75,0.00,,,0.00,327,WeatherCatV1.20B785,2013-12-04 16:41:00,
2013-12-04 11:44:00,49.9,42.0,30.07,ENE,73,2.0,2.0,74,0.00,,,0.00,410,WeatherCatV1.20B785,2013-12-04 16:44:00,
2013-12-04 11:45:00,50.0,42.0,30.07,NE,56,2.0,4.0,74,0.00,,,0.00,425,WeatherCatV1.20B785,2013-12-04 16:45:00,
2013-12-04 11:46:00,50.2,41.5,30.07,NE,55,1.0,4.0,72,0.00,,,0.00,429,WeatherCatV1.20B785,2013-12-04 16:46:00,
2013-12-04 11:47:00,50.2,41.5,30.06,East,86,3.0,4.0,72,0.00,,,0.00,200,WeatherCatV1.20B785,2013-12-04 16:47:00,
2013-12-04 11:49:00,50.3,41.6,30.06,ENE,77,2.0,5.0,72,0.00,,,0.00,146,WeatherCatV1.20B785,2013-12-04 16:49:00,
2013-12-04 11:50:00,50.3,41.6,30.06,East,89,2.0,4.0,72,0.00,,,0.00,132,WeatherCatV1.20B785,2013-12-04 16:50:00,
2013-12-04 11:51:00,50.3,42.0,30.06,NE,50,2.0,4.0,73,0.00,,,0.00,130,WeatherCatV1.20B785,2013-12-04 16:51:00,
2013-12-04 11:52:00,50.3,41.6,30.06,NE,50,0.0,4.0,72,0.00,,,0.00,127,WeatherCatV1.20B785,2013-12-04 16:52:00,
2013-12-04 11:54:00,50.4,41.4,30.06,NE,56,4.0,4.0,71,0.00,,,0.00,139,WeatherCatV1.20B785,2013-12-04 16:54:00,
2013-12-04 11:55:00,50.4,41.7,30.06,NE,50,1.0,4.0,72,0.00,,,0.00,141,WeatherCatV1.20B785,2013-12-04 16:55:00,
2013-12-04 11:56:00,50.3,41.6,30.06,ENE,67,2.0,3.0,72,0.00,,,0.00,141,WeatherCatV1.20B785,2013-12-04 16:56:00,
2013-12-04 11:57:00,50.3,41.6,30.06,NE,56,1.0,3.0,72,0.00,,,0.00,120,WeatherCatV1.20B785,2013-12-04 16:57:00,
2013-12-04 11:58:00,50.4,41.4,30.06,NE,56,0.0,3.0,71,0.00,,,0.00,130,WeatherCatV1.20B785,2013-12-04 16:58:00,
2013-12-04 12:00:00,50.4,41.7,30.06,ENE,60,1.0,4.0,72,0.00,,,0.00,114,WeatherCatV1.20B785,2013-12-04 17:00:00,
2013-12-04 12:01:00,50.4,41.7,30.06,North,7,1.0,4.0,72,0.00,,,0.00,116,WeatherCatV1.20B785,2013-12-04 17:01:00,
2013-12-04 12:02:00,50.5,41.8,30.06,NNW,333,0.0,2.0,72,0.00,,,0.00,121,WeatherCatV1.20B785,2013-12-04 17:02:00,
2013-12-04 12:03:00,50.5,41.8,30.06,North,2,0.0,3.0,72,0.00,,,0.00,127,WeatherCatV1.20B785,2013-12-04 17:03:00,
2013-12-04 12:06:00,50.7,42.0,30.06,NE,45,2.0,3.0,72,0.00,,,0.00,134,WeatherCatV1.20B785,2013-12-04 17:06:00,
2013-12-04 12:07:00,50.8,41.7,30.05,NE,42,4.0,5.0,71,0.00,,,0.00,167,WeatherCatV1.20B785,2013-12-04 17:07:00,
2013-12-04 12:08:00,50.8,41.7,30.05,East,79,1.0,5.0,71,0.00,,,0.00,183,WeatherCatV1.20B785,2013-12-04 17:08:00,
2013-12-04 12:09:00,50.8,41.7,30.05,North,352,1.0,2.0,71,0.00,,,0.00,193,WeatherCatV1.20B785,2013-12-04 17:09:00,
2013-12-04 12:11:00,50.9,41.8,30.05,North,7,1.0,2.0,71,0.00,,,0.00,141,WeatherCatV1.20B785,2013-12-04 17:11:00,
2013-12-04 12:12:00,50.9,41.8,30.05,East,88,1.0,3.0,71,0.00,,,0.00,141,WeatherCatV1.20B785,2013-12-04 17:12:00,
2013-12-04 12:13:00,51.0,41.9,30.05,East,88,0.0,3.0,71,0.00,,,0.00,144,WeatherCatV1.20B785,2013-12-04 17:13:00,
2013-12-04 12:14:00,51.0,41.9,30.05,NNE,24,2.0,4.0,71,0.00,,,0.00,139,WeatherCatV1.20B785,2013-12-04 17:14:00,
2013-12-04 12:17:00,51.2,42.1,30.05,NE,36,0.0,2.0,71,0.00,,,0.00,141,WeatherCatV1.20B785,2013-12-04 17:17:00,
2013-12-04 12:18:00,51.3,42.2,30.05,North,7,0.0,1.0,71,0.00,,,0.00,142,WeatherCatV1.20B785,2013-12-04 17:18:00,
2013-12-04 12:19:00,51.4,42.3,30.05,NNE,17,3.0,3.0,71,0.00,,,0.00,146,WeatherCatV1.20B785,2013-12-04 17:19:00,
2013-12-04 12:20:00,51.4,42.3,30.05,NNE,17,1.0,3.0,71,0.00,,,0.00,148,WeatherCatV1.20B785,2013-12-04 17:20:00,
2013-12-04 12:22:00,51.6,41.8,30.05,East,92,1.0,5.0,69,0.00,,,0.00,141,WeatherCatV1.20B785,2013-12-04 17:22:00,
2013-12-04 12:23:00,51.6,42.1,30.05,ENE,73,1.0,3.0,70,0.00,,,0.00,135,WeatherCatV1.20B785,2013-12-04 17:23:00,
2013-12-04 12:24:00,51.7,42.2,30.05,East,98,2.0,3.0,70,0.00,,,0.00,128,WeatherCatV1.20B785,2013-12-04 17:24:00,
2013-12-04 12:26:00,51.7,42.2,30.04,ENE,67,1.0,5.0,70,0.00,,,0.00,123,WeatherCatV1.20B785,2013-12-04 17:26:00,
2013-12-04 12:27:00,51.6,42.1,30.04,NW,318,2.0,5.0,70,0.00,,,0.00,121,WeatherCatV1.20B785,2013-12-04 17:27:00,
2013-12-04 12:28:00,51.7,42.6,30.04,NE,36,3.0,3.0,71,0.00,,,0.00,121,WeatherCatV1.20B785,2013-12-04 17:28:00,
2013-12-04 12:29:00,51.7,41.9,30.04,NNW,333,1.0,3.0,69,0.00,,,0.00,118,WeatherCatV1.20B785,2013-12-04 17:29:00,
2013-12-04 12:32:00,51.8,42.3,30.04,NNE,25,1.0,2.0,70,0.00,,,0.00,130,WeatherCatV1.20B785,2013-12-04 17:32:00,
2013-12-04 12:33:00,51.9,42.8,30.04,NNE,21,1.0,2.0,71,0.00,,,0.00,153,WeatherCatV1.20B785,2013-12-04 17:33:00,
2013-12-04 12:34:00,52.1,42.2,30.04,East,100,2.0,3.0,69,0.00,,,0.00,142,WeatherCatV1.20B785,2013-12-04 17:34:00,
2013-12-04 12:35:00,52.1,42.2,30.04,East,100,1.0,3.0,69,0.00,,,0.00,142,WeatherCatV1.20B785,2013-12-04 17:35:00,
2013-12-04 12:37:00,52.2,42.3,30.04,NE,50,1.0,3.0,69,0.00,,,0.00,186,WeatherCatV1.20B785,2013-12-04 17:37:00,
2013-12-04 12:38:00,52.3,42.8,30.04,NE,49,1.0,3.0,70,0.00,,,0.00,158,WeatherCatV1.20B785,2013-12-04 17:38:00,
2013-12-04 12:40:00,52.5,43.0,30.04,NE,48,4.0,4.0,70,0.00,,,0.00,181,WeatherCatV1.20B785,2013-12-04 17:40:00,
2013-12-04 12:43:00,52.7,42.4,30.03,East,94,0.0,2.0,68,0.00,,,0.00,292,WeatherCatV1.20B785,2013-12-04 17:43:00,
2013-12-04 12:44:00,52.8,42.9,30.03,NNE,23,2.0,3.0,69,0.00,,,0.00,209,WeatherCatV1.20B785,2013-12-04 17:44:00,
2013-12-04 12:45:00,52.8,42.5,30.03,NW,321,1.0,2.0,68,0.00,,,0.00,162,WeatherCatV1.20B785,2013-12-04 17:45:00,
2013-12-04 12:49:00,53.1,42.8,30.03,NNW,334,2.0,3.0,68,0.00,,,0.00,193,WeatherCatV1.20B785,2013-12-04 17:49:00,
2013-12-04 12:50:00,53.2,43.3,30.03,NE,46,0.0,3.0,69,0.00,,,0.00,232,WeatherCatV1.20B785,2013-12-04 17:50:00,
2013-12-04 12:51:00,53.3,43.0,30.03,NNE,29,2.0,4.0,68,0.00,,,0.00,160,WeatherCatV1.20B785,2013-12-04 17:51:00,
2013-12-04 12:55:00,53.6,42.9,30.03,NW,321,0.0,0.0,67,0.00,,,0.00,186,WeatherCatV1.20B785,2013-12-04 17:55:00,
2013-12-04 12:57:00,53.7,43.4,30.03,North,2,1.0,1.0,68,0.00,,,0.00,172,WeatherCatV1.20B785,2013-12-04 17:57:00,
2013-12-04 13:00:00,54.0,43.7,30.03,North,0,3.0,3.0,68,0.00,,,0.00,149,WeatherCatV1.20B785,2013-12-04 18:00:00,
2013-12-04 13:02:00,54.1,43.0,30.03,ENE,77,1.0,5.0,66,0.00,,,0.00,139,WeatherCatV1.20B785,2013-12-04 18:02:00,
2013-12-04 13:03:00,54.2,43.5,30.03,NNW,340,2.0,4.0,67,0.00,,,0.00,121,WeatherCatV1.20B785,2013-12-04 18:03:00,
2013-12-04 13:05:00,54.2,43.5,30.03,NE,40,4.0,4.0,67,0.00,,,0.00,139,WeatherCatV1.20B785,2013-12-04 18:05:00,
2013-12-04 13:07:00,54.3,43.6,30.03,North,2,2.0,4.0,67,0.00,,,0.00,114,WeatherCatV1.20B785,2013-12-04 18:07:00,
2013-12-04 13:08:00,54.4,43.3,30.03,NNW,333,1.0,4.0,66,0.00,,,0.00,107,WeatherCatV1.20B785,2013-12-04 18:08:00,
2013-12-04 13:10:00,54.5,43.8,30.03,North,359,1.0,2.0,67,0.00,,,0.00,104,WeatherCatV1.20B785,2013-12-04 18:10:00,
2013-12-04 13:12:00,54.6,43.9,30.02,NNE,27,1.0,3.0,67,0.00,,,0.00,98,WeatherCatV1.20B785,2013-12-04 18:12:00,
2013-12-04 13:13:00,54.6,43.5,30.02,NNE,31,3.0,3.0,66,0.00,,,0.00,98,WeatherCatV1.20B785,2013-12-04 18:13:00,
2013-12-04 13:15:00,54.8,43.7,30.02,NE,50,4.0,6.0,66,0.00,,,0.00,97,WeatherCatV1.20B785,2013-12-04 18:15:00,
2013-12-04 13:17:00,54.8,43.7,30.02,NNW,340,1.0,4.0,66,0.00,,,0.00,98,WeatherCatV1.20B785,2013-12-04 18:17:00,
2013-12-04 13:18:00,54.8,43.7,30.02,East,86,1.0,2.0,66,0.00,,,0.00,104,WeatherCatV1.20B785,2013-12-04 18:18:00,
2013-12-04 13:19:00,54.9,43.8,30.02,East,84,3.0,3.0,66,0.00,,,0.00,97,WeatherCatV1.20B785,2013-12-04 18:19:00,
2013-12-04 13:21:00,54.9,43.8,30.02,ENE,73,2.0,5.0,66,0.00,,,0.00,107,WeatherCatV1.20B785,2013-12-04 18:21:00,
2013-12-04 13:22:00,55.0,43.5,30.02,NE,48,5.0,7.0,65,0.00,,,0.00,97,WeatherCatV1.20B785,2013-12-04 18:22:00,
2013-12-04 13:23:00,55.0,43.8,30.02,East,90,3.0,7.0,66,0.00,,,0.00,102,WeatherCatV1.20B785,2013-12-04 18:23:00,
2013-12-04 13:24:00,55.0,43.8,30.02,East,80,2.0,7.0,66,0.00,,,0.00,105,WeatherCatV1.20B785,2013-12-04 18:24:00,
2013-12-04 13:26:00,55.0,43.5,30.02,ESE,113,2.0,4.0,65,0.00,,,0.00,100,WeatherCatV1.20B785,2013-12-04 18:26:00,
2013-12-04 13:28:00,54.9,43.4,30.02,ESE,113,0.0,3.0,65,0.00,,,0.00,113,WeatherCatV1.20B785,2013-12-04 18:28:00,
2013-12-04 13:29:00,54.8,43.7,30.02,ESE,115,0.0,1.0,66,0.00,,,0.00,153,WeatherCatV1.20B785,2013-12-04 18:29:00,
2013-12-04 13:30:00,54.8,43.7,30.02,ESE,118,2.0,2.0,66,0.00,,,0.00,127,WeatherCatV1.20B785,2013-12-04 18:30:00,
2013-12-04 13:32:00,54.8,43.7,30.02,NW,309,0.0,2.0,66,0.00,,,0.00,104,WeatherCatV1.20B785,2013-12-04 18:32:00,
2013-12-04 13:33:00,54.8,44.0,30.02,East,86,2.0,3.0,67,0.00,,,0.00,104,WeatherCatV1.20B785,2013-12-04 18:33:00,
2013-12-04 13:34:00,54.8,44.0,30.02,East,91,3.0,3.0,67,0.00,,,0.00,95,WeatherCatV1.20B785,2013-12-04 18:34:00,
2013-12-04 13:35:00,54.8,43.7,30.02,East,86,2.0,3.0,66,0.00,,,0.00,74,WeatherCatV1.20B785,2013-12-04 18:35:00,
2013-12-04 13:37:00,54.8,43.7,30.02,SE,125,2.0,5.0,66,0.00,,,0.00,93,WeatherCatV1.20B785,2013-12-04 18:37:00,
2013-12-04 13:38:00,54.8,43.7,30.02,East,87,1.0,5.0,66,0.00,,,0.00,163,WeatherCatV1.20B785,2013-12-04 18:38:00,
2013-12-04 13:39:00,54.7,43.6,30.02,East,88,1.0,3.0,66,0.00,,,0.00,116,WeatherCatV1.20B785,2013-12-04 18:39:00,
2013-12-04 13:40:00,54.7,44.0,30.02,ESE,102,5.0,5.0,67,0.00,,,0.00,105,WeatherCatV1.20B785,2013-12-04 18:40:00,
2013-12-04 13:41:00,54.7,44.0,30.02,ENE,58,1.0,5.0,67,0.00,,,0.00,104,WeatherCatV1.20B785,2013-12-04 18:41:00,
2013-12-04 13:42:00,54.7,44.0,30.02,ENE,64,3.0,5.0,67,0.00,,,0.00,125,WeatherCatV1.20B785,2013-12-04 18:42:00,
2013-12-04 13:43:00,54.7,43.6,30.02,NE,52,3.0,4.0,66,0.00,,,0.00,144,WeatherCatV1.20B785,2013-12-04 18:43:00,
2013-12-04 13:44:00,54.7,44.0,30.02,ENE,60,3.0,3.0,67,0.00,,,0.00,123,WeatherCatV1.20B785,2013-12-04 18:44:00,
2013-12-04 13:45:00,54.7,44.0,30.02,East,92,2.0,4.0,67,0.00,,,0.00,132,WeatherCatV1.20B785,2013-12-04 18:45:00,
2013-12-04 13:46:00,54.8,43.7,30.02,ENE,75,2.0,4.0,66,0.00,,,0.00,144,WeatherCatV1.20B785,2013-12-04 18:46:00,
2013-12-04 13:47:00,54.8,44.0,30.02,NNE,17,3.0,4.0,67,0.00,,,0.00,169,WeatherCatV1.20B785,2013-12-04 18:47:00,
2013-12-04 13:48:00,54.8,44.0,30.01,ENE,58,0.0,5.0,67,0.00,,,0.00,167,WeatherCatV1.20B785,2013-12-04 18:48:00,
2013-12-04 13:50:00,54.8,43.7,30.01,NNE,25,3.0,4.0,66,0.00,,,0.00,144,WeatherCatV1.20B785,2013-12-04 18:50:00,
2013-12-04 13:51:00,54.8,43.7,30.01,NE,36,4.0,4.0,66,0.00,,,0.00,137,WeatherCatV1.20B785,2013-12-04 18:51:00,
2013-12-04 13:52:00,54.9,44.2,30.01,NE,43,5.0,5.0,67,0.00,,,0.00,135,WeatherCatV1.20B785,2013-12-04 18:52:00,
2013-12-04 13:53:00,55.0,44.2,30.01,East,79,4.0,5.0,67,0.00,,,0.00,134,WeatherCatV1.20B785,2013-12-04 18:53:00,
2013-12-04 13:55:00,55.0,44.2,30.01,East,94,3.0,6.0,67,0.00,,,0.00,135,WeatherCatV1.20B785,2013-12-04 18:55:00,
2013-12-04 13:57:00,55.0,43.8,30.01,East,83,7.0,7.0,66,0.00,,,0.00,137,WeatherCatV1.20B785,2013-12-04 18:57:00,
2013-12-04 13:58:00,55.0,44.2,30.01,East,98,7.0,7.0,67,0.00,,,0.00,137,WeatherCatV1.20B785,2013-12-04 18:58:00,
2013-12-04 13:59:00,55.0,43.8,30.01,ENE,73,3.0,7.0,66,0.00,,,0.00,137,WeatherCatV1.20B785,2013-12-04 18:59:00,
2013-12-04 14:01:00,55.0,44.2,30.01,ENE,61,2.0,6.0,67,0.00,,,0.00,135,WeatherCatV1.20B785,2013-12-04 19:01:00,
2013-12-04 14:02:00,55.0,44.2,30.01,East,81,1.0,6.0,67,0.00,,,0.00,135,WeatherCatV1.20B785,2013-12-04 19:02:00,
2013-12-04 14:03:00,54.9,44.2,30.01,East,93,3.0,3.0,67,0.00,,,0.00,142,WeatherCatV1.20B785,2013-12-04 19:03:00,
2013-12-04 14:04:00,54.9,44.2,30.01,East,92,6.0,6.0,67,0.00,,,0.00,149,WeatherCatV1.20B785,2013-12-04 19:04:00,
2013-12-04 14:07:00,54.9,44.2,30.01,East,98,5.0,5.0,67,0.00,,,0.00,169,WeatherCatV1.20B785,2013-12-04 19:07:00,
2013-12-04 14:08:00,54.9,44.2,30.00,ESE,103,3.0,6.0,67,0.00,,,0.00,172,WeatherCatV1.20B785,2013-12-04 19:08:00,
2013-12-04 14:09:00,54.9,44.2,30.01,East,95,2.0,6.0,67,0.00,,,0.00,174,WeatherCatV1.20B785,2013-12-04 19:09:00,
2013-12-04 14:12:00,54.9,44.2,30.01,East,100,6.0,6.0,67,0.00,,,0.00,172,WeatherCatV1.20B785,2013-12-04 19:12:00,
2013-12-04 14:13:00,54.9,44.2,30.01,ENE,69,2.0,6.0,67,0.00,,,0.00,172,WeatherCatV1.20B785,2013-12-04 19:13:00,
2013-12-04 14:14:00,54.9,44.2,30.01,East,98,3.0,6.0,67,0.00,,,0.00,172,WeatherCatV1.20B785,2013-12-04 19:14:00,
2013-12-04 14:15:00,54.9,44.2,30.01,ESE,102,5.0,5.0,67,0.00,,,0.00,171,WeatherCatV1.20B785,2013-12-04 19:15:00,
2013-12-04 14:16:00,54.9,44.2,30.01,ENE,75,2.0,6.0,67,0.00,,,0.00,171,WeatherCatV1.20B785,2013-12-04 19:16:00,
2013-12-04 14:17:00,54.9,44.2,30.01,ESE,109,5.0,5.0,67,0.00,,,0.00,172,WeatherCatV1.20B785,2013-12-04 19:17:00,
2013-12-04 14:18:00,54.9,44.2,30.01,ESE,116,2.0,5.0,67,0.00,,,0.00,171,WeatherCatV1.20B785,2013-12-04 19:18:00,
2013-12-04 14:19:00,54.8,44.4,30.01,East,94,3.0,5.0,68,0.00,,,0.00,162,WeatherCatV1.20B785,2013-12-04 19:19:00,
2013-12-04 14:20:00,54.8,44.0,30.01,East,98,5.0,7.0,67,0.00,,,0.00,162,WeatherCatV1.20B785,2013-12-04 19:20:00,
2013-12-04 14:21:00,54.8,44.0,30.00,ENE,76,4.0,7.0,67,0.00,,,0.00,155,WeatherCatV1.20B785,2013-12-04 19:21:00,
2013-12-04 14:23:00,54.8,44.0,30.01,ENE,69,3.0,3.0,67,0.00,,,0.00,144,WeatherCatV1.20B785,2013-12-04 19:23:00,
2013-12-04 14:25:00,54.8,44.4,30.01,ESE,104,3.0,3.0,68,0.00,,,0.00,137,WeatherCatV1.20B785,2013-12-04 19:25:00,
2013-12-04 14:27:00,54.8,44.4,30.01,East,83,2.0,3.0,68,0.00,,,0.00,127,WeatherCatV1.20B785,2013-12-04 19:27:00,
2013-12-04 14:28:00,54.8,44.4,30.01,East,96,2.0,3.0,68,0.00,,,0.00,116,WeatherCatV1.20B785,2013-12-04 19:28:00,
2013-12-04 14:29:00,54.8,44.4,30.01,East,96,1.0,3.0,68,0.00,,,0.00,111,WeatherCatV1.20B785,2013-12-04 19:29:00,
2013-12-04 14:31:00,54.8,44.0,30.01,East,101,3.0,3.0,67,0.00,,,0.00,102,WeatherCatV1.20B785,2013-12-04 19:31:00,
2013-12-04 14:32:00,54.8,44.0,30.00,East,92,3.0,5.0,67,0.00,,,0.00,98,WeatherCatV1.20B785,2013-12-04 19:32:00,
2013-12-04 14:33:00,54.7,44.0,30.00,East,101,2.0,5.0,67,0.00,,,0.00,91,WeatherCatV1.20B785,2013-12-04 19:33:00,
2013-12-04 14:34:00,54.7,44.0,30.00,East,101,1.0,5.0,67,0.00,,,0.00,90,WeatherCatV1.20B785,2013-12-04 19:34:00,
2013-12-04 14:36:00,54.6,43.9,30.00,East,99,2.0,2.0,67,0.00,,,0.00,86,WeatherCatV1.20B785,2013-12-04 19:36:00,
2013-12-04 14:38:00,54.5,44.2,30.00,East,85,2.0,3.0,68,0.00,,,0.00,84,WeatherCatV1.20B785,2013-12-04 19:38:00,
2013-12-04 14:39:00,54.5,44.2,30.00,East,96,3.0,3.0,68,0.00,,,0.00,83,WeatherCatV1.20B785,2013-12-04 19:39:00,
2013-12-04 14:41:00,54.4,44.1,30.00,East,84,2.0,2.0,68,0.00,,,0.00,84,WeatherCatV1.20B785,2013-12-04 19:41:00,
2013-12-04 14:42:00,54.4,44.1,30.00,East,84,1.0,2.0,68,0.00,,,0.00,86,WeatherCatV1.20B785,2013-12-04 19:42:00,
2013-12-04 14:43:00,54.4,44.1,30.00,East,79,1.0,2.0,68,0.00,,,0.00,90,WeatherCatV1.20B785,2013-12-04 19:43:00,
2013-12-04 14:44:00,54.4,44.1,30.00,East,81,1.0,2.0,68,0.00,,,0.00,91,WeatherCatV1.20B785,2013-12-04 19:44:00,
2013-12-04 14:45:00,54.4,44.1,30.00,ENE,63,2.0,3.0,68,0.00,,,0.00,93,WeatherCatV1.20B785,2013-12-04 19:45:00,
2013-12-04 14:46:00,54.3,44.0,30.00,ENE,60,2.0,3.0,68,0.00,,,0.00,95,WeatherCatV1.20B785,2013-12-04 19:46:00,
2013-12-04 14:47:00,54.3,44.0,30.00,NE,54,4.0,5.0,68,0.00,,,0.00,97,WeatherCatV1.20B785,2013-12-04 19:47:00,
2013-12-04 14:49:00,54.3,44.0,30.00,East,82,3.0,4.0,68,0.00,,,0.00,100,WeatherCatV1.20B785,2013-12-04 19:49:00,
2013-12-04 14:50:00,54.3,44.0,30.00,East,88,2.0,4.0,68,0.00,,,0.00,100,WeatherCatV1.20B785,2013-12-04 19:50:00,
2013-12-04 14:52:00,54.2,43.9,30.00,East,81,2.0,4.0,68,0.00,,,0.00,102,WeatherCatV1.20B785,2013-12-04 19:52:00,
2013-12-04 14:54:00,54.2,44.2,30.00,ENE,69,2.0,5.0,69,0.00,,,0.00,105,WeatherCatV1.20B785,2013-12-04 19:54:00,
2013-12-04 14:55:00,54.2,44.2,30.00,ENE,69,1.0,5.0,69,0.00,,,0.00,109,WeatherCatV1.20B785,2013-12-04 19:55:00,
2013-12-04 14:57:00,54.2,44.6,30.00,East,94,2.0,3.0,70,0.00,,,0.00,113,WeatherCatV1.20B785,2013-12-04 19:57:00,
2013-12-04 14:58:00,54.2,44.6,30.00,ESE,107,3.0,3.0,70,0.00,,,0.00,114,WeatherCatV1.20B785,2013-12-04 19:58:00,
2013-12-04 14:59:00,54.2,44.2,30.00,ESE,113,3.0,5.0,69,0.00,,,0.00,116,WeatherCatV1.20B785,2013-12-04 19:59:00,
2013-12-04 15:01:00,54.2,44.6,30.00,ESE,103,3.0,5.0,70,0.00,,,0.00,120,WeatherCatV1.20B785,2013-12-04 20:01:00,
2013-12-04 15:03:00,54.2,44.6,30.00,East,90,3.0,5.0,70,0.00,,,0.00,121,WeatherCatV1.20B785,2013-12-04 20:03:00,
2013-12-04 15:04:00,54.3,44.7,30.00,East,90,2.0,3.0,70,0.00,,,0.00,121,WeatherCatV1.20B785,2013-12-04 20:04:00,
2013-12-04 15:06:00,54.2,44.6,30.00,SSE,147,1.0,3.0,70,0.00,,,0.00,120,WeatherCatV1.20B785,2013-12-04 20:06:00,
2013-12-04 15:08:00,54.2,44.2,30.00,ESE,123,1.0,3.0,69,0.00,,,0.00,116,WeatherCatV1.20B785,2013-12-04 20:08:00,
2013-12-04 15:09:00,54.2,44.6,30.00,ENE,74,0.0,3.0,70,0.00,,,0.00,114,WeatherCatV1.20B785,2013-12-04 20:09:00,
2013-12-04 15:11:00,54.2,44.2,30.00,ENE,61,1.0,2.0,69,0.00,,,0.00,111,WeatherCatV1.20B785,2013-12-04 20:11:00,
2013-12-04 15:12:00,54.2,44.6,30.00,ENE,70,2.0,2.0,70,0.00,,,0.00,109,WeatherCatV1.20B785,2013-12-04 20:12:00,
2013-12-04 15:16:00,54.2,44.6,30.00,East,82,2.0,2.0,70,0.00,,,0.00,104,WeatherCatV1.20B785,2013-12-04 20:16:00,
2013-12-04 15:17:00,54.2,44.6,30.00,ENE,71,1.0,2.0,70,0.00,,,0.00,104,WeatherCatV1.20B785,2013-12-04 20:17:00,
2013-12-04 15:18:00,54.2,44.6,30.00,East,87,2.0,2.0,70,0.00,,,0.00,107,WeatherCatV1.20B785,2013-12-04 20:18:00,
2013-12-04 15:19:00,54.2,44.6,30.00,ENE,58,2.0,3.0,70,0.00,,,0.00,111,WeatherCatV1.20B785,2013-12-04 20:19:00,
2013-12-04 15:21:00,54.3,44.3,30.00,SE,129,3.0,5.0,69,0.00,,,0.00,107,WeatherCatV1.20B785,2013-12-04 20:21:00,
2013-12-04 15:22:00,54.3,44.3,30.00,ESE,119,3.0,5.0,69,0.00,,,0.00,105,WeatherCatV1.20B785,2013-12-04 20:22:00,
2013-12-04 15:23:00,54.2,44.2,30.00,East,98,3.0,3.0,69,0.00,,,0.00,104,WeatherCatV1.20B785,2013-12-04 20:23:00,
2013-12-04 15:24:00,54.2,44.2,30.00,ESE,118,2.0,3.0,69,0.00,,,0.00,102,WeatherCatV1.20B785,2013-12-04 20:24:00,
2013-12-04 15:27:00,54.2,44.6,30.00,SE,132,1.0,2.0,70,0.00,,,0.00,91,WeatherCatV1.20B785,2013-12-04 20:27:00,
2013-12-04 15:28:00,54.2,44.2,30.00,SE,127,1.0,2.0,69,0.00,,,0.00,86,WeatherCatV1.20B785,2013-12-04 20:28:00,
2013-12-04 15:30:00,54.1,44.2,30.00,SE,128,0.0,1.0,69,0.00,,,0.00,79,WeatherCatV1.20B785,2013-12-04 20:30:00,
2013-12-04 15:32:00,54.1,44.5,30.00,SE,128,0.0,0.0,70,0.00,,,0.00,69,WeatherCatV1.20B785,2013-12-04 20:32:00,
2013-12-04 15:33:00,54.1,44.5,30.00,SE,129,2.0,2.0,70,0.00,,,0.00,65,WeatherCatV1.20B785,2013-12-04 20:33:00,
2013-12-04 15:34:00,54.1,44.5,30.00,East,85,2.0,3.0,70,0.00,,,0.00,62,WeatherCatV1.20B785,2013-12-04 20:34:00,
2013-12-04 15:35:00,54.1,44.5,30.00,ENE,73,2.0,3.0,70,0.00,,,0.00,58,WeatherCatV1.20B785,2013-12-04 20:35:00,
2013-12-04 15:37:00,54.0,44.4,30.00,ESE,104,2.0,3.0,70,0.00,,,0.00,53,WeatherCatV1.20B785,2013-12-04 20:37:00,
2013-12-04 15:39:00,54.0,44.4,30.01,ESE,104,0.0,2.0,70,0.00,,,0.00,47,WeatherCatV1.20B785,2013-12-04 20:39:00,
2013-12-04 15:40:00,54.0,44.1,30.01,ESE,104,0.0,1.0,69,0.00,,,0.00,47,WeatherCatV1.20B785,2013-12-04 20:40:00,
2013-12-04 15:42:00,53.9,44.0,30.00,ESE,104,0.0,0.0,69,0.00,,,0.00,46,WeatherCatV1.20B785,2013-12-04 20:42:00,
2013-12-04 15:44:00,53.9,44.3,30.00,ESE,104,0.0,0.0,70,0.00,,,0.00,47,WeatherCatV1.20B785,2013-12-04 20:44:00,
2013-12-04 15:45:00,53.9,44.3,30.00,ESE,104,0.0,0.0,70,0.00,,,0.00,49,WeatherCatV1.20B785,2013-12-04 20:45:00,
2013-12-04 15:46:00,53.9,44.3,30.00,ESE,104,0.0,0.0,70,0.00,,,0.00,49,WeatherCatV1.20B785,2013-12-04 20:46:00,
2013-12-04 15:48:00,53.8,44.2,30.00,ESE,104,0.0,0.0,70,0.00,,,0.00,53,WeatherCatV1.20B785,2013-12-04 20:48:00,
2013-12-04 15:50:00,53.7,44.2,30.01,ESE,104,0.0,1.0,70,0.00,,,0.00,56,WeatherCatV1.20B785,2013-12-04 20:50:00,
2013-12-04 15:51:00,53.7,44.2,30.00,ESE,104,0.0,1.0,70,0.00,,,0.00,56,WeatherCatV1.20B785,2013-12-04 20:51:00,
2013-12-04 15:52:00,53.7,44.2,30.01,ESE,104,0.0,0.0,70,0.00,,,0.00,56,WeatherCatV1.20B785,2013-12-04 20:52:00,
2013-12-04 15:53:00,53.6,44.0,30.01,ESE,104,0.0,0.0,70,0.00,,,0.00,54,WeatherCatV1.20B785,2013-12-04 20:53:00,
2013-12-04 15:55:00,53.6,44.4,30.01,ESE,104,0.0,0.0,71,0.00,,,0.00,49,WeatherCatV1.20B785,2013-12-04 20:55:00,
2013-12-04 15:56:00,53.5,44.3,30.01,ESE,104,0.0,0.0,71,0.00,,,0.00,47,WeatherCatV1.20B785,2013-12-04 20:56:00,
2013-12-04 15:57:00,53.5,44.3,30.01,ESE,104,0.0,0.0,71,0.00,,,0.00,44,WeatherCatV1.20B785,2013-12-04 20:57:00,
2013-12-04 15:58:00,53.5,44.3,30.00,ESE,104,0.0,0.0,71,0.00,,,0.00,42,WeatherCatV1.20B785,2013-12-04 20:58:00,
2013-12-04 16:00:00,53.4,44.2,30.00,ESE,104,0.0,0.0,71,0.00,,,0.00,35,WeatherCatV1.20B785,2013-12-04 21:00:00,
2013-12-04 16:01:00,53.3,44.1,30.00,ESE,104,0.0,0.0,71,0.00,,,0.00,32,WeatherCatV1.20B785,2013-12-04 21:01:00,
2013-12-04 16:03:00,53.3,44.1,30.00,ESE,104,0.0,0.0,71,0.00,,,0.00,28,WeatherCatV1.20B785,2013-12-04 21:03:00,
2013-12-04 16:04:00,53.3,44.1,30.00,ESE,104,0.0,0.0,71,0.00,,,0.00,26,WeatherCatV1.20B785,2013-12-04 21:04:00,
2013-12-04 16:05:00,53.2,44.0,30.00,ESE,104,1.0,1.0,71,0.00,,,0.00,26,WeatherCatV1.20B785,2013-12-04 21:05:00,
2013-12-04 16:08:00,53.1,44.0,30.00,ESE,104,0.0,2.0,71,0.00,,,0.00,25,WeatherCatV1.20B785,2013-12-04 21:08:00,
2013-12-04 16:09:00,53.0,43.8,30.00,ESE,104,0.0,1.0,71,0.00,,,0.00,25,WeatherCatV1.20B785,2013-12-04 21:09:00,
2013-12-04 16:13:00,52.7,43.9,30.00,ESE,104,0.0,0.0,72,0.00,,,0.00,26,WeatherCatV1.20B785,2013-12-04 21:13:00,
2013-12-04 16:14:00,52.6,43.8,30.00,ESE,104,0.0,0.0,72,0.00,,,0.00,25,WeatherCatV1.20B785,2013-12-04 21:14:00,
2013-12-04 16:18:00,52.4,44.0,30.01,ESE,104,0.0,0.0,73,0.00,,,0.00,23,WeatherCatV1.20B785,2013-12-04 21:18:00,
2013-12-04 16:19:00,52.4,44.0,30.01,ESE,104,0.0,0.0,73,0.00,,,0.00,21,WeatherCatV1.20B785,2013-12-04 21:19:00,
2013-12-04 16:22:00,52.2,43.8,30.01,ESE,104,0.0,0.0,73,0.00,,,0.00,19,WeatherCatV1.20B785,2013-12-04 21:22:00,
2013-12-04 16:23:00,52.2,43.8,30.01,ESE,104,0.0,0.0,73,0.00,,,0.00,19,WeatherCatV1.20B785,2013-12-04 21:23:00,
2013-12-04 16:26:00,52.0,43.6,30.01,ESE,104,0.0,0.0,73,0.00,,,0.00,21,WeatherCatV1.20B785,2013-12-04 21:26:00,
2013-12-04 16:28:00,51.9,43.9,30.01,ESE,104,0.0,0.0,74,0.00,,,0.00,21,WeatherCatV1.20B785,2013-12-04 21:28:00,
2013-12-04 16:29:00,51.9,43.9,30.01,ESE,104,0.0,0.0,74,0.00,,,0.00,19,WeatherCatV1.20B785,2013-12-04 21:29:00,
2013-12-04 16:31:00,51.8,43.8,30.01,ESE,104,0.0,1.0,74,0.00,,,0.00,14,WeatherCatV1.20B785,2013-12-04 21:31:00,
2013-12-04 16:32:00,51.8,43.8,30.01,ESE,104,0.0,0.0,74,0.00,,,0.00,12,WeatherCatV1.20B785,2013-12-04 21:32:00,
2013-12-04 16:33:00,51.7,43.7,30.01,ESE,104,0.0,0.0,74,0.00,,,0.00,11,WeatherCatV1.20B785,2013-12-04 21:33:00,
2013-12-04 16:34:00,51.7,43.7,30.01,ESE,104,0.0,0.0,74,0.00,,,0.00,11,WeatherCatV1.20B785,2013-12-04 21:34:00,
2013-12-04 16:36:00,51.6,43.6,30.01,ESE,104,0.0,0.0,74,0.00,,,0.00,7,WeatherCatV1.20B785,2013-12-04 21:36:00,
2013-12-04 16:37:00,51.6,43.6,30.01,ESE,104,0.0,0.0,74,0.00,,,0.00,5,WeatherCatV1.20B785,2013-12-04 21:37:00,
2013-12-04 16:39:00,51.6,43.9,30.01,ESE,104,0.0,0.0,75,0.00,,,0.00,5,WeatherCatV1.20B785,2013-12-04 21:39:00,
2013-12-04 16:41:00,51.4,43.7,30.02,ESE,104,0.0,1.0,75,0.00,,,0.00,0,WeatherCatV1.20B785,2013-12-04 21:41:00,
2013-12-04 16:42:00,51.4,43.7,30.02,ESE,104,1.0,1.0,75,0.00,,,0.00,0,WeatherCatV1.20B785,2013-12-04 21:42:00,
2013-12-04 16:43:00,51.4,43.7,30.02,ESE,104,0.0,1.0,75,0.00,,,0.00,0,WeatherCatV1.20B785,2013-12-04 21:43:00,
2013-12-04 16:44:00,51.3,43.7,30.02,ESE,104,0.0,1.0,75,0.00,,,0.00,0,WeatherCatV1.20B785,2013-12-04 21:44:00,
2013-12-04 16:45:00,51.3,43.7,30.02,ESE,104,0.0,0.0,75,0.00,,,0.00,0,WeatherCatV1.20B785,2013-12-04 21:45:00,
2013-12-04 16:47:00,51.3,43.7,30.02,ESE,104,0.0,0.0,75,0.00,,,0.00,0,WeatherCatV1.20B785,2013-12-04 21:47:00,
2013-12-04 16:48:00,51.2,43.5,30.02,ESE,104,0.0,0.0,75,0.00,,,0.00,0,WeatherCatV1.20B785,2013-12-04 21:48:00,
2013-12-04 16:49:00,51.2,43.5,30.02,ESE,104,0.0,0.0,75,0.00,,,0.00,0,WeatherCatV1.20B785,2013-12-04 21:49:00,
2013-12-04 16:51:00,51.1,43.5,30.02,ESE,104,0.0,0.0,75,0.00,,,0.00,0,WeatherCatV1.20B785,2013-12-04 21:51:00,
2013-12-04 16:52:00,51.1,43.5,30.02,ESE,104,0.0,0.0,75,0.00,,,0.00,0,WeatherCatV1.20B785,2013-12-04 21:52:00,
2013-12-04 16:53:00,51.0,43.4,30.02,ESE,104,0.0,0.0,75,0.00,,,0.00,0,WeatherCatV1.20B785,2013-12-04 21:53:00,
2013-12-04 16:55:00,51.0,43.7,30.02,ESE,104,0.0,0.0,76,0.00,,,0.00,0,WeatherCatV1.20B785,2013-12-04 21:55:00,
2013-12-04 16:56:00,50.9,43.6,30.02,ESE,104,0.0,0.0,76,0.00,,,0.00,0,WeatherCatV1.20B785,2013-12-04 21:56:00,
2013-12-04 16:57:00,50.9,43.6,30.02,ESE,104,0.0,0.0,76,0.00,,,0.00,0,WeatherCatV1.20B785,2013-12-04 21:57:00,
2013-12-04 16:58:00,50.9,43.6,30.02,ESE,104,0.0,0.0,76,0.00,,,0.00,0,WeatherCatV1.20B785,2013-12-04 21:58:00,
2013-12-04 17:00:00,50.8,43.5,30.02,ESE,104,0.0,0.0,76,0.00,,,0.00,0,WeatherCatV1.20B785,2013-12-04 22:00:00,
2013-12-04 17:01:00,50.8,43.5,30.02,ESE,104,0.0,1.0,76,0.00,,,0.00,0,WeatherCatV1.20B785,2013-12-04 22:01:00,
2013-12-04 17:02:00,50.7,43.4,30.02,ESE,104,0.0,1.0,76,0.00,,,0.00,0,WeatherCatV1.20B785,2013-12-04 22:02:00,
2013-12-04 17:04:00,50.6,43.3,30.02,ESE,104,0.0,0.0,76,0.00,,,0.00,0,WeatherCatV1.20B785,2013-12-04 22:04:00,
2013-12-04 17:05:00,50.6,43.3,30.02,ESE,104,0.0,0.0,76,0.00,,,0.00,0,WeatherCatV1.20B785,2013-12-04 22:05:00,
2013-12-04 17:06:00,50.5,43.6,30.02,ESE,104,0.0,0.0,77,0.00,,,0.00,0,WeatherCatV1.20B785,2013-12-04 22:06:00,
2013-12-04 17:07:00,50.5,43.6,30.03,ESE,104,0.0,0.0,77,0.00,,,0.00,0,WeatherCatV1.20B785,2013-12-04 22:07:00,
2013-12-04 17:08:00,50.5,43.6,30.03,ESE,104,0.0,0.0,77,0.00,,,0.00,0,WeatherCatV1.20B785,2013-12-04 22:08:00,
2013-12-04 17:09:00,50.5,43.6,30.03,ESE,104,0.0,0.0,77,0.00,,,0.00,0,WeatherCatV1.20B785,2013-12-04 22:09:00,
2013-12-04 17:11:00,50.5,43.6,30.03,ESE,104,0.0,0.0,77,0.00,,,0.00,0,WeatherCatV1.20B785,2013-12-04 22:11:00,
2013-12-04 17:12:00,50.4,43.5,30.03,ESE,104,0.0,0.0,77,0.00,,,0.00,0,WeatherCatV1.20B785,2013-12-04 22:12:00,
2013-12-04 17:13:00,50.4,43.1,30.03,ESE,104,0.0,0.0,76,0.00,,,0.00,0,WeatherCatV1.20B785,2013-12-04 22:13:00,
2013-12-04 17:15:00,50.3,43.4,30.03,ESE,104,0.0,0.0,77,0.00,,,0.00,0,WeatherCatV1.20B785,2013-12-04 22:15:00,
2013-12-04 17:16:00,50.2,43.3,30.03,ESE,104,0.0,0.0,77,0.00,,,0.00,0,WeatherCatV1.20B785,2013-12-04 22:16:00,
2013-12-04 17:18:00,50.1,43.2,30.03,ESE,104,0.0,0.0,77,0.00,,,0.00,0,WeatherCatV1.20B785,2013-12-04 22:18:00,
2013-12-04 17:19:00,50.1,43.2,30.03,ESE,104,0.0,0.0,77,0.00,,,0.00,0,WeatherCatV1.20B785,2013-12-04 22:19:00,
2013-12-04 17:20:00,50.0,43.4,30.03,ESE,104,0.0,0.0,78,0.00,,,0.00,0,WeatherCatV1.20B785,2013-12-04 22:20:00,
2013-12-04 17:22:00,50.0,43.4,30.03,ESE,104,0.0,0.0,78,0.00,,,0.00,0,WeatherCatV1.20B785,2013-12-04 22:22:00,
2013-12-04 17:23:00,50.0,43.4,30.03,ESE,104,0.0,0.0,78,0.00,,,0.00,0,WeatherCatV1.20B785,2013-12-04 22:23:00,
2013-12-04 17:24:00,49.9,43.3,30.03,ESE,104,0.0,2.0,78,0.00,,,0.00,0,WeatherCatV1.20B785,2013-12-04 22:24:00,
2013-12-04 17:26:00,49.9,43.3,30.03,ESE,104,0.0,0.0,78,0.00,,,0.00,0,WeatherCatV1.20B785,2013-12-04 22:26:00,
2013-12-04 17:27:00,49.8,43.2,30.03,ESE,104,0.0,0.0,78,0.00,,,0.00,0,WeatherCatV1.20B785,2013-12-04 22:27:00,
2013-12-04 17:28:00,49.8,43.2,30.03,ESE,104,0.0,0.0,78,0.00,,,0.00,0,WeatherCatV1.20B785,2013-12-04 22:28:00,
2013-12-04 17:29:00,49.7,43.1,30.03,ESE,104,2.0,2.0,78,0.00,,,0.00,0,WeatherCatV1.20B785,2013-12-04 22:29:00,
2013-12-04 17:31:00,49.7,43.1,30.03,ESE,104,2.0,2.0,78,0.00,,,0.00,0,WeatherCatV1.20B785,2013-12-04 22:31:00,
2013-12-04 17:32:00,49.6,43.4,30.03,ESE,104,1.0,2.0,79,0.00,,,0.00,0,WeatherCatV1.20B785,2013-12-04 22:32:00,
2013-12-04 17:33:00,49.5,43.3,30.03,ESE,103,1.0,2.0,79,0.00,,,0.00,0,WeatherCatV1.20B785,2013-12-04 22:33:00,
2013-12-04 17:34:00,49.5,43.3,30.03,East,79,1.0,2.0,79,0.00,,,0.00,0,WeatherCatV1.20B785,2013-12-04 22:34:00,
2013-12-04 17:35:00,49.4,43.2,30.03,East,79,0.0,2.0,79,0.00,,,0.00,0,WeatherCatV1.20B785,2013-12-04 22:35:00,
2013-12-04 17:36:00,49.4,43.2,30.03,ENE,73,1.0,2.0,79,0.00,,,0.00,0,WeatherCatV1.20B785,2013-12-04 22:36:00,
2013-12-04 17:37:00,49.3,43.1,30.03,ENE,73,1.0,2.0,79,0.00,,,0.00,0,WeatherCatV1.20B785,2013-12-04 22:37:00,
2013-12-04 17:38:00,49.2,43.0,30.03,ENE,73,0.0,2.0,79,0.00,,,0.00,0,WeatherCatV1.20B785,2013-12-04 22:38:00,
2013-12-04 17:39:00,49.2,43.0,30.03,ENE,73,0.0,1.0,79,0.00,,,0.00,0,WeatherCatV1.20B785,2013-12-04 22:39:00,
2013-12-04 17:40:00,49.2,43.0,30.03,ENE,73,0.0,0.0,79,0.00,,,0.00,0,WeatherCatV1.20B785,2013-12-04 22:40:00,
2013-12-04 17:42:00,49.1,42.9,30.03,ENE,73,2.0,2.0,79,0.00,,,0.00,0,WeatherCatV1.20B785,2013-12-04 22:42:00,
2013-12-04 17:44:00,49.0,42.8,30.03,ENE,73,0.0,1.0,79,0.00,,,0.00,0,WeatherCatV1.20B785,2013-12-04 22:44:00,
2013-12-04 17:45:00,48.9,42.7,30.03,ENE,73,0.0,1.0,79,0.00,,,0.00,0,WeatherCatV1.20B785,2013-12-04 22:45:00,
2013-12-04 17:47:00,48.8,42.9,30.03,ENE,66,0.0,1.0,80,0.00,,,0.00,0,WeatherCatV1.20B785,2013-12-04 22:47:00,
2013-12-04 17:48:00,48.8,42.9,30.03,ENE,66,0.0,1.0,80,0.00,,,0.00,0,WeatherCatV1.20B785,2013-12-04 22:48:00,
2013-12-04 17:49:00,48.7,42.8,30.03,ENE,66,0.0,0.0,80,0.00,,,0.00,0,WeatherCatV1.20B785,2013-12-04 22:49:00,
2013-12-04 17:50:00,48.7,42.8,30.03,ENE,66,0.0,1.0,80,0.00,,,0.00,0,WeatherCatV1.20B785,2013-12-04 22:50:00,
2013-12-04 17:51:00,48.6,42.7,30.03,ENE,66,0.0,1.0,80,0.00,,,0.00,0,WeatherCatV1.20B785,2013-12-04 22:51:00,
2013-12-04 17:53:00,48.5,42.6,30.04,North,2,1.0,2.0,80,0.00,,,0.00,0,WeatherCatV1.20B785,2013-12-04 22:53:00,
2013-12-04 17:54:00,48.5,42.6,30.04,North,2,1.0,2.0,80,0.00,,,0.00,0,WeatherCatV1.20B785,2013-12-04 22:54:00,
2013-12-04 17:55:00,48.4,42.5,30.04,North,2,0.0,2.0,80,0.00,,,0.00,0,WeatherCatV1.20B785,2013-12-04 22:55:00,
2013-12-04 17:56:00,48.4,42.8,30.04,North,2,1.0,1.0,81,0.00,,,0.00,0,WeatherCatV1.20B785,2013-12-04 22:56:00,
2013-12-04 17:58:00,48.3,42.7,30.03,North,2,0.0,1.0,81,0.00,,,0.00,0,WeatherCatV1.20B785,2013-12-04 22:58:00,
2013-12-04 17:59:00,48.3,42.7,30.04,North,2,0.0,0.0,81,0.00,,,0.00,0,WeatherCatV1.20B785,2013-12-04 22:59:00,
2013-12-04 18:01:00,48.3,42.7,30.04,North,2,0.0,1.0,81,0.00,,,0.00,0,WeatherCatV1.20B785,2013-12-04 23:01:00,
2013-12-04 18:02:00,48.3,42.7,30.03,North,2,0.0,1.0,81,0.00,,,0.00,0,WeatherCatV1.20B785,2013-12-04 23:02:00,
2013-12-04 18:04:00,48.3,42.7,30.03,North,2,0.0,0.0,81,0.00,,,0.00,0,WeatherCatV1.20B785,2013-12-04 23:04:00,
2013-12-04 18:05:00,48.3,42.7,30.03,North,7,0.0,2.0,81,0.00,,,0.00,0,WeatherCatV1.20B785,2013-12-04 23:05:00,
2013-12-04 18:06:00,48.2,42.7,30.03,North,7,2.0,2.0,81,0.00,,,0.00,0,WeatherCatV1.20B785,2013-12-04 23:06:00,
2013-12-04 18:07:00,48.2,42.7,30.03,North,7,2.0,2.0,81,0.00,,,0.00,0,WeatherCatV1.20B785,2013-12-04 23:07:00,
2013-12-04 18:09:00,48.1,42.5,30.04,North,7,0.0,1.0,81,0.00,,,0.00,0,WeatherCatV1.20B785,2013-12-04 23:09:00,
2013-12-04 18:10:00,48.0,42.5,30.04,North,7,0.0,1.0,81,0.00,,,0.00,0,WeatherCatV1.20B785,2013-12-04 23:10:00,
2013-12-04 18:12:00,47.9,42.3,30.04,North,7,1.0,2.0,81,0.00,,,0.00,0,WeatherCatV1.20B785,2013-12-04 23:12:00,
2013-12-04 18:14:00,47.9,42.7,30.04,North,7,0.0,1.0,82,0.00,,,0.00,0,WeatherCatV1.20B785,2013-12-04 23:14:00,
2013-12-04 18:15:00,47.8,42.6,30.04,North,7,1.0,2.0,82,0.00,,,0.00,0,WeatherCatV1.20B785,2013-12-04 23:15:00,
2013-12-04 18:16:00,47.8,42.6,30.04,North,7,1.0,2.0,82,0.00,,,0.00,0,WeatherCatV1.20B785,2013-12-04 23:16:00,
2013-12-04 18:17:00,47.7,42.5,30.04,North,7,2.0,2.0,82,0.00,,,0.00,0,WeatherCatV1.20B785,2013-12-04 23:17:00,
2013-12-04 18:19:00,47.7,42.2,30.04,North,7,0.0,0.0,81,0.00,,,0.00,0,WeatherCatV1.20B785,2013-12-04 23:19:00,
2013-12-04 18:22:00,47.5,42.3,30.04,North,7,0.0,0.0,82,0.00,,,0.00,0,WeatherCatV1.20B785,2013-12-04 23:22:00,
2013-12-04 18:23:00,47.4,42.2,30.04,North,7,0.0,1.0,82,0.00,,,0.00,0,WeatherCatV1.20B785,2013-12-04 23:23:00,
2013-12-04 18:24:00,47.4,42.2,30.04,North,7,0.0,1.0,82,0.00,,,0.00,0,WeatherCatV1.20B785,2013-12-04 23:24:00,
2013-12-04 18:27:00,47.3,42.1,30.04,North,7,0.0,0.0,82,0.00,,,0.00,0,WeatherCatV1.20B785,2013-12-04 23:27:00,
2013-12-04 18:28:00,47.3,42.4,30.04,North,7,0.0,0.0,83,0.00,,,0.00,0,WeatherCatV1.20B785,2013-12-04 23:28:00,
2013-12-04 18:29:00,47.3,42.4,30.04,North,7,1.0,1.0,83,0.00,,,0.00,0,WeatherCatV1.20B785,2013-12-04 23:29:00,
2013-12-04 18:32:00,47.1,41.9,30.04,North,7,0.0,0.0,82,0.00,,,0.00,0,WeatherCatV1.20B785,2013-12-04 23:32:00,
2013-12-04 18:33:00,47.1,41.9,30.04,North,7,0.0,0.0,82,0.00,,,0.00,0,WeatherCatV1.20B785,2013-12-04 23:33:00,
2013-12-04 18:34:00,47.0,41.8,30.04,North,7,1.0,1.0,82,0.00,,,0.00,0,WeatherCatV1.20B785,2013-12-04 23:34:00,
2013-12-04 18:38:00,46.8,41.9,30.03,North,7,0.0,0.0,83,0.00,,,0.00,0,WeatherCatV1.20B785,2013-12-04 23:38:00,
2013-12-04 18:39:00,46.8,41.9,30.04,North,7,0.0,0.0,83,0.00,,,0.00,0,WeatherCatV1.20B785,2013-12-04 23:39:00,
2013-12-04 18:40:00,46.7,41.8,30.03,North,7,0.0,0.0,83,0.00,,,0.00,0,WeatherCatV1.20B785,2013-12-04 23:40:00,
2013-12-04 18:41:00,46.7,41.8,30.03,North,7,0.0,0.0,83,0.00,,,0.00,0,WeatherCatV1.20B785,2013-12-04 23:41:00,
2013-12-04 18:43:00,46.5,41.6,30.04,North,7,0.0,0.0,83,0.00,,,0.00,0,WeatherCatV1.20B785,2013-12-04 23:43:00,
2013-12-04 18:44:00,46.5,41.9,30.04,North,7,0.0,0.0,84,0.00,,,0.00,0,WeatherCatV1.20B785,2013-12-04 23:44:00,
2013-12-04 18:45:00,46.5,41.9,30.04,North,7,1.0,1.0,84,0.00,,,0.00,0,WeatherCatV1.20B785,2013-12-04 23:45:00,
2013-12-04 18:48:00,46.4,41.8,30.04,North,7,1.0,1.0,84,0.00,,,0.00,0,WeatherCatV1.20B785,2013-12-04 23:48:00,
2013-12-04 18:49:00,46.5,41.9,30.04,North,7,0.0,1.0,84,0.00,,,0.00,0,WeatherCatV1.20B785,2013-12-04 23:49:00,
2013-12-04 18:50:00,46.5,41.9,30.04,North,7,0.0,1.0,84,0.00,,,0.00,0,WeatherCatV1.20B785,2013-12-04 23:50:00,
2013-12-04 18:51:00,46.5,41.9,30.04,North,7,0.0,1.0,84,0.00,,,0.00,0,WeatherCatV1.20B785,2013-12-04 23:51:00,
2013-12-04 18:54:00,46.4,42.1,30.04,North,7,0.0,1.0,85,0.00,,,0.00,0,WeatherCatV1.20B785,2013-12-04 23:54:00,
2013-12-04 18:55:00,46.5,42.2,30.04,North,7,0.0,1.0,85,0.00,,,0.00,0,WeatherCatV1.20B785,2013-12-04 23:55:00,
2013-12-04 18:56:00,46.5,42.2,30.04,North,7,0.0,1.0,85,0.00,,,0.00,0,WeatherCatV1.20B785,2013-12-04 23:56:00,
2013-12-04 18:57:00,46.5,42.2,30.04,North,7,0.0,1.0,85,0.00,,,0.00,0,WeatherCatV1.20B785,2013-12-04 23:57:00,
2013-12-04 18:59:00,46.6,42.3,30.05,North,7,0.0,0.0,85,0.00,,,0.00,0,WeatherCatV1.20B785,2013-12-04 23:59:00,
2013-12-04 19:00:00,46.7,42.4,30.05,North,7,0.0,0.0,85,0.00,,,0.00,0,WeatherCatV1.20B785,2013-12-05 00:00:00,
2013-12-04 19:01:00,46.7,42.7,30.05,North,7,0.0,1.0,86,0.00,,,0.00,0,WeatherCatV1.20B785,2013-12-05 00:01:00,
2013-12-04 19:02:00,46.8,42.5,30.05,North,7,0.0,0.0,85,0.00,,,0.00,0,WeatherCatV1.20B785,2013-12-05 00:02:00,
2013-12-04 19:04:00,46.8,42.5,30.05,North,7,0.0,0.0,85,0.00,,,0.00,0,WeatherCatV1.20B785,2013-12-05 00:04:00,
2013-12-04 19:05:00,46.8,42.5,30.05,North,7,0.0,0.0,85,0.00,,,0.00,0,WeatherCatV1.20B785,2013-12-05 00:05:00,
2013-12-04 19:06:00,46.8,42.5,30.05,North,7,0.0,0.0,85,0.00,,,0.00,0,WeatherCatV1.20B785,2013-12-05 00:06:00,
2013-12-04 19:07:00,46.8,42.2,30.05,North,7,1.0,1.0,84,0.00,,,0.00,0,WeatherCatV1.20B785,2013-12-05 00:07:00,
2013-12-04 19:10:00,46.7,42.1,30.05,NE,50,1.0,1.0,84,0.00,,,0.00,0,WeatherCatV1.20B785,2013-12-05 00:10:00,
2013-12-04 19:12:00,46.6,42.0,30.05,NE,51,0.0,0.0,84,0.00,,,0.00,0,WeatherCatV1.20B785,2013-12-05 00:12:00,
2013-12-04 19:13:00,46.6,42.0,30.05,NE,51,0.0,0.0,84,0.00,,,0.00,0,WeatherCatV1.20B785,2013-12-05 00:13:00,
2013-12-04 19:15:00,46.5,41.9,30.05,NE,51,0.0,0.0,84,0.00,,,0.00,0,WeatherCatV1.20B785,2013-12-05 00:15:00,
2013-12-04 19:16:00,46.4,41.8,30.05,NE,51,0.0,0.0,84,0.00,,,0.00,0,WeatherCatV1.20B785,2013-12-05 00:16:00,
2013-12-04 19:17:00,46.4,41.8,30.05,NE,51,0.0,0.0,84,0.00,,,0.00,0,WeatherCatV1.20B785,2013-12-05 00:17:00,
2013-12-04 19:18:00,46.4,42.1,30.05,NE,51,0.0,0.0,85,0.00,,,0.00,0,WeatherCatV1.20B785,2013-12-05 00:18:00,
2013-12-04 19:21:00,46.3,42.0,30.05,NE,51,0.0,0.0,85,0.00,,,0.00,0,WeatherCatV1.20B785,2013-12-05 00:21:00,
2013-12-04 19:22:00,46.3,42.0,30.05,NE,51,0.0,0.0,85,0.00,,,0.00,0,WeatherCatV1.20B785,2013-12-05 00:22:00,
2013-12-04 19:23:00,46.2,41.9,30.05,NE,51,0.0,0.0,85,0.00,,,0.00,0,WeatherCatV1.20B785,2013-12-05 00:23:00,
2013-12-04 19:26:00,46.1,41.5,30.05,NE,51,0.0,0.0,84,0.00,,,0.00,0,WeatherCatV1.20B785,2013-12-05 00:26:00,
2013-12-04 19:27:00,46.1,41.5,30.05,NE,51,0.0,0.0,84,0.00,,,0.00,0,WeatherCatV1.20B785,2013-12-05 00:27:00,
2013-12-04 19:28:00,46.0,41.8,30.05,NE,51,0.0,0.0,85,0.00,,,0.00,0,WeatherCatV1.20B785,2013-12-05 00:28:00,
2013-12-04 19:31:00,45.9,41.7,30.04,NE,51,0.0,0.0,85,0.00,,,0.00,0,WeatherCatV1.20B785,2013-12-05 00:31:00,
2013-12-04 19:32:00,45.9,41.7,30.05,NE,51,0.0,0.0,85,0.00,,,0.00,0,WeatherCatV1.20B785,2013-12-05 00:32:00,
2013-12-04 19:33:00,45.8,41.5,30.05,NE,51,0.0,0.0,85,0.00,,,0.00,0,WeatherCatV1.20B785,2013-12-05 00:33:00,
2013-12-04 19:35:00,45.8,41.5,30.04,NE,51,0.0,0.0,85,0.00,,,0.00,0,WeatherCatV1.20B785,2013-12-05 00:35:00,
2013-12-04 19:37:00,45.6,41.3,30.05,NE,51,0.0,0.0,85,0.00,,,0.00,0,WeatherCatV1.20B785,2013-12-05 00:37:00,
2013-12-04 19:38:00,45.6,41.3,30.04,NE,51,0.0,0.0,85,0.00,,,0.00,0,WeatherCatV1.20B785,2013-12-05 00:38:00,
2013-12-04 19:39:00,45.5,41.3,30.04,NE,51,0.0,0.0,85,0.00,,,0.00,0,WeatherCatV1.20B785,2013-12-05 00:39:00,
2013-12-04 19:42:00,45.3,41.4,30.04,NE,51,0.0,1.0,86,0.00,,,0.00,0,WeatherCatV1.20B785,2013-12-05 00:42:00,
2013-12-04 19:43:00,45.3,41.4,30.04,NE,51,0.0,1.0,86,0.00,,,0.00,0,WeatherCatV1.20B785,2013-12-05 00:43:00,
2013-12-04 19:44:00,45.2,41.3,30.04,NE,51,0.0,0.0,86,0.00,,,0.00,0,WeatherCatV1.20B785,2013-12-05 00:44:00,
2013-12-04 19:47:00,45.2,41.6,30.04,NE,51,0.0,0.0,87,0.00,,,0.00,0,WeatherCatV1.20B785,2013-12-05 00:47:00,
2013-12-04 19:48:00,45.1,41.5,30.04,NE,51,0.0,1.0,87,0.00,,,0.00,0,WeatherCatV1.20B785,2013-12-05 00:48:00,
2013-12-04 19:49:00,45.1,41.2,30.04,NE,51,0.0,1.0,86,0.00,,,0.00,0,WeatherCatV1.20B785,2013-12-05 00:49:00,
2013-12-04 19:52:00,45.0,41.1,30.04,NE,51,0.0,0.0,86,0.00,,,0.00,0,WeatherCatV1.20B785,2013-12-05 00:52:00,
2013-12-04 19:54:00,44.9,41.0,30.04,NE,51,1.0,1.0,86,0.00,,,0.00,0,WeatherCatV1.20B785,2013-12-05 00:54:00,
2013-12-04 19:55:00,44.9,41.0,30.04,NE,51,0.0,1.0,86,0.00,,,0.00,0,WeatherCatV1.20B785,2013-12-05 00:55:00,
2013-12-04 19:57:00,44.7,40.8,30.04,NE,51,1.0,1.0,86,0.00,,,0.00,0,WeatherCatV1.20B785,2013-12-05 00:57:00,
2013-12-04 19:59:00,44.6,41.0,30.04,NE,51,0.0,1.0,87,0.00,,,0.00,0,WeatherCatV1.20B785,2013-12-05 00:59:00,
2013-12-04 20:00:00,44.6,41.0,30.04,NE,51,0.0,0.0,87,0.00,,,0.00,0,WeatherCatV1.20B785,2013-12-05 01:00:00,
2013-12-04 20:01:00,44.5,40.9,30.04,NE,51,0.0,0.0,87,0.00,,,0.00,0,WeatherCatV1.20B785,2013-12-05 01:01:00,
2013-12-04 20:02:00,44.5,40.9,30.04,NE,51,1.0,1.0,87,0.00,,,0.00,0,WeatherCatV1.20B785,2013-12-05 01:02:00,
2013-12-04 20:04:00,44.3,40.4,30.04,NE,51,0.0,1.0,86,0.00,,,0.00,0,WeatherCatV1.20B785,2013-12-05 01:04:00,
2013-12-04 20:05:00,44.2,40.3,30.04,NE,51,0.0,1.0,86,0.00,,,0.00,0,WeatherCatV1.20B785,2013-12-05 01:05:00,
2013-12-04 20:06:00,44.1,40.2,30.04,NE,51,0.0,0.0,86,0.00,,,0.00,0,WeatherCatV1.20B785,2013-12-05 01:06:00,
2013-12-04 20:07:00,44.1,40.5,30.04,NE,51,0.0,0.0,87,0.00,,,0.00,0,WeatherCatV1.20B785,2013-12-05 01:07:00,
2013-12-04 20:09:00,43.9,40.3,30.04,NE,51,0.0,1.0,87,0.00,,,0.00,0,WeatherCatV1.20B785,2013-12-05 01:09:00,
2013-12-04 20:10:00,43.9,40.6,30.05,NE,51,0.0,1.0,88,0.00,,,0.00,0,WeatherCatV1.20B785,2013-12-05 01:10:00,
2013-12-04 20:11:00,43.8,40.5,30.05,North,7,1.0,2.0,88,0.00,,,0.00,0,WeatherCatV1.20B785,2013-12-05 01:11:00,
2013-12-04 20:12:00,43.8,40.5,30.05,North,7,0.0,2.0,88,0.00,,,0.00,0,WeatherCatV1.20B785,2013-12-05 01:12:00,
2013-12-04 20:13:00,43.8,40.5,30.05,North,7,0.0,2.0,88,0.00,,,0.00,0,WeatherCatV1.20B785,2013-12-05 01:13:00,
2013-12-04 20:14:00,43.7,40.4,30.05,North,7,0.0,0.0,88,0.00,,,0.00,0,WeatherCatV1.20B785,2013-12-05 01:14:00,
2013-12-04 20:16:00,43.7,40.4,30.05,North,7,0.0,1.0,88,0.00,,,0.00,0,WeatherCatV1.20B785,2013-12-05 01:16:00,
2013-12-04 20:17:00,43.7,40.7,30.05,North,7,0.0,1.0,89,0.00,,,0.00,0,WeatherCatV1.20B785,2013-12-05 01:17:00,
2013-12-04 20:18:00,43.7,40.7,30.05,North,7,2.0,2.0,89,0.00,,,0.00,0,WeatherCatV1.20B785,2013-12-05 01:18:00,
2013-12-04 20:20:00,43.6,40.3,30.05,North,7,0.0,1.0,88,0.00,,,0.00,0,WeatherCatV1.20B785,2013-12-05 01:20:00,
2013-12-04 20:21:00,43.6,40.3,30.05,North,7,0.0,1.0,88,0.00,,,0.00,0,WeatherCatV1.20B785,2013-12-05 01:21:00,
2013-12-04 20:22:00,43.5,40.2,30.05,North,7,0.0,0.0,88,0.00,,,0.00,0,WeatherCatV1.20B785,2013-12-05 01:22:00,
2013-12-04 20:23:00,43.4,40.1,30.05,North,7,2.0,2.0,88,0.00,,,0.00,0,WeatherCatV1.20B785,2013-12-05 01:23:00,
2013-12-04 20:26:00,43.3,40.0,30.05,North,7,0.0,0.0,88,0.00,,,0.00,0,WeatherCatV1.20B785,2013-12-05 01:26:00,
2013-12-04 20:27:00,43.2,39.9,30.05,SE,129,0.0,1.0,88,0.00,,,0.00,0,WeatherCatV1.20B785,2013-12-05 01:27:00,
2013-12-04 20:28:00,43.2,39.9,30.05,SE,129,0.0,0.0,88,0.00,,,0.00,0,WeatherCatV1.20B785,2013-12-05 01:28:00,
2013-12-04 20:29:00,43.2,39.9,30.05,SE,129,0.0,0.0,88,0.00,,,0.00,0,WeatherCatV1.20B785,2013-12-05 01:29:00,
2013-12-04 20:31:00,43.1,40.1,30.05,SE,129,0.0,0.0,89,0.00,,,0.00,0,WeatherCatV1.20B785,2013-12-05 01:31:00,
2013-12-04 20:32:00,43.0,40.0,30.05,SE,129,0.0,0.0,89,0.00,,,0.00,0,WeatherCatV1.20B785,2013-12-05 01:32:00,
2013-12-04 20:34:00,42.9,39.9,30.05,SE,129,0.0,0.0,89,0.00,,,0.00,0,WeatherCatV1.20B785,2013-12-05 01:34:00,
2013-12-04 20:37:00,43.0,40.0,30.05,NW,322,0.0,2.0,89,0.00,,,0.00,0,WeatherCatV1.20B785,2013-12-05 01:37:00,
2013-12-04 20:38:00,42.9,39.9,30.05,East,88,1.0,2.0,89,0.00,,,0.00,0,WeatherCatV1.20B785,2013-12-05 01:38:00,
2013-12-04 20:39:00,42.8,39.5,30.05,East,88,0.0,1.0,88,0.00,,,0.00,0,WeatherCatV1.20B785,2013-12-05 01:39:00,
2013-12-04 20:40:00,42.8,39.5,30.05,East,88,1.0,1.0,88,0.00,,,0.00,0,WeatherCatV1.20B785,2013-12-05 01:40:00,
2013-12-04 20:42:00,42.6,39.6,30.05,NE,38,0.0,1.0,89,0.00,,,0.00,0,WeatherCatV1.20B785,2013-12-05 01:42:00,
2013-12-04 20:43:00,42.6,39.6,30.05,NE,38,0.0,0.0,89,0.00,,,0.00,0,WeatherCatV1.20B785,2013-12-05 01:43:00,
2013-12-04 20:44:00,42.6,39.6,30.05,NE,38,0.0,0.0,89,0.00,,,0.00,0,WeatherCatV1.20B785,2013-12-05 01:44:00,
2013-12-04 20:45:00,42.6,39.6,30.05,NE,38,0.0,0.0,89,0.00,,,0.00,0,WeatherCatV1.20B785,2013-12-05 01:45:00,
2013-12-04 20:47:00,42.5,39.5,30.06,ESE,111,0.0,2.0,89,0.00,,,0.00,0,WeatherCatV1.20B785,2013-12-05 01:47:00,
2013-12-04 20:48:00,42.5,39.5,30.06,ESE,111,0.0,0.0,89,0.00,,,0.00,0,WeatherCatV1.20B785,2013-12-05 01:48:00,
2013-12-04 20:49:00,42.4,39.4,30.05,ESE,111,0.0,0.0,89,0.00,,,0.00,0,WeatherCatV1.20B785,2013-12-05 01:49:00,
2013-12-04 20:50:00,42.4,39.4,30.05,ESE,111,0.0,0.0,89,0.00,,,0.00,0,WeatherCatV1.20B785,2013-12-05 01:50:00,
2013-12-04 20:54:00,42.3,39.3,30.05,ESE,111,0.0,0.0,89,0.00,,,0.00,0,WeatherCatV1.20B785,2013-12-05 01:54:00,
2013-12-04 20:55:00,42.3,39.6,30.05,ESE,111,0.0,1.0,90,0.00,,,0.00,0,WeatherCatV1.20B785,2013-12-05 01:55:00,
2013-12-04 20:59:00,42.3,39.6,30.06,ESE,111,0.0,1.0,90,0.00,,,0.00,0,WeatherCatV1.20B785,2013-12-05 01:59:00,
2013-12-04 21:00:00,42.3,39.3,30.06,ESE,111,1.0,1.0,89,0.00,,,0.00,0,WeatherCatV1.20B785,2013-12-05 02:00:00,
2013-12-04 21:01:00,42.3,39.3,30.06,ESE,111,0.0,1.0,89,0.00,,,0.00,0,WeatherCatV1.20B785,2013-12-05 02:01:00,
2013-12-04 21:04:00,42.0,39.0,30.06,ESE,111,0.0,0.0,89,0.00,,,0.00,0,WeatherCatV1.20B785,2013-12-05 02:04:00,
2013-12-04 21:05:00,42.1,39.1,30.06,ESE,111,0.0,0.0,89,0.00,,,0.00,0,WeatherCatV1.20B785,2013-12-05 02:05:00,
2013-12-04 21:06:00,42.1,39.4,30.06,ESE,111,2.0,2.0,90,0.00,,,0.00,0,WeatherCatV1.20B785,2013-12-05 02:06:00,
2013-12-04 21:10:00,42.0,39.0,30.06,ESE,111,2.0,2.0,89,0.00,,,0.00,0,WeatherCatV1.20B785,2013-12-05 02:10:00,
2013-12-04 21:12:00,41.9,38.9,30.05,ESE,111,0.0,2.0,89,0.00,,,0.00,0,WeatherCatV1.20B785,2013-12-05 02:12:00,
2013-12-04 21:13:00,41.9,38.9,30.05,ESE,111,1.0,2.0,89,0.00,,,0.00,0,WeatherCatV1.20B785,2013-12-05 02:13:00,
2013-12-04 21:15:00,41.8,39.1,30.05,ESE,111,1.0,1.0,90,0.00,,,0.00,0,WeatherCatV1.20B785,2013-12-05 02:15:00,
2013-12-04 21:17:00,41.6,38.6,30.05,ESE,111,0.0,0.0,89,0.00,,,0.00,0,WeatherCatV1.20B785,2013-12-05 02:17:00,
2013-12-04 21:18:00,41.6,38.6,30.05,ESE,111,0.0,0.0,89,0.00,,,0.00,0,WeatherCatV1.20B785,2013-12-05 02:18:00,
2013-12-04 21:20:00,41.5,38.5,30.05,ESE,111,0.0,0.0,89,0.00,,,0.00,0,WeatherCatV1.20B785,2013-12-05 02:20:00,
2013-12-04 21:22:00,41.3,38.3,30.05,ESE,111,0.0,2.0,89,0.00,,,0.00,0,WeatherCatV1.20B785,2013-12-05 02:22:00,
2013-12-04 21:23:00,41.3,38.3,30.05,ESE,111,0.0,2.0,89,0.00,,,0.00,0,WeatherCatV1.20B785,2013-12-05 02:23:00,
2013-12-04 21:24:00,41.2,38.2,30.05,ESE,111,1.0,1.0,89,0.00,,,0.00,0,WeatherCatV1.20B785,2013-12-05 02:24:00,
2013-12-04 21:25:00,41.1,38.1,30.05,ESE,111,0.0,2.0,89,0.00,,,0.00,0,WeatherCatV1.20B785,2013-12-05 02:25:00,
2013-12-04 21:26:00,41.1,38.1,30.05,ESE,111,0.0,2.0,89,0.00,,,0.00,0,WeatherCatV1.20B785,2013-12-05 02:26:00,
2013-12-04 21:28:00,41.0,38.3,30.05,ESE,111,0.0,0.0,90,0.00,,,0.00,0,WeatherCatV1.20B785,2013-12-05 02:28:00,
2013-12-04 21:29:00,41.1,38.1,30.05,ESE,111,2.0,2.0,89,0.00,,,0.00,0,WeatherCatV1.20B785,2013-12-05 02:29:00,
2013-12-04 21:31:00,41.1,38.4,30.05,ESE,111,0.0,2.0,90,0.00,,,0.00,0,WeatherCatV1.20B785,2013-12-05 02:31:00,
2013-12-04 21:33:00,41.0,38.3,30.05,ESE,111,0.0,1.0,90,0.00,,,0.00,0,WeatherCatV1.20B785,2013-12-05 02:33:00,
2013-12-04 21:34:00,40.9,38.2,30.06,ESE,111,0.0,1.0,90,0.00,,,0.00,0,WeatherCatV1.20B785,2013-12-05 02:34:00,
2013-12-04 21:36:00,40.9,38.2,30.06,ESE,111,1.0,2.0,90,0.00,,,0.00,0,WeatherCatV1.20B785,2013-12-05 02:36:00,
2013-12-04 21:38:00,40.6,37.9,30.06,ESE,111,0.0,0.0,90,0.00,,,0.00,0,WeatherCatV1.20B785,2013-12-05 02:38:00,
2013-12-04 21:39:00,40.6,37.9,30.06,ESE,111,0.0,0.0,90,0.00,,,0.00,0,WeatherCatV1.20B785,2013-12-05 02:39:00,
2013-12-04 21:40:00,40.5,37.5,30.06,ESE,111,0.0,1.0,89,0.00,,,0.00,0,WeatherCatV1.20B785,2013-12-05 02:40:00,
2013-12-04 21:42:00,40.4,37.7,30.06,ESE,111,0.0,1.0,90,0.00,,,0.00,0,WeatherCatV1.20B785,2013-12-05 02:42:00,
2013-12-04 21:44:00,40.4,37.7,30.06,ESE,111,2.0,2.0,90,0.00,,,0.00,0,WeatherCatV1.20B785,2013-12-05 02:44:00,
2013-12-04 21:45:00,40.4,37.7,30.06,ESE,111,0.0,2.0,90,0.00,,,0.00,0,WeatherCatV1.20B785,2013-12-05 02:45:00,
2013-12-04 21:47:00,40.2,37.5,30.06,ESE,111,0.0,2.0,90,0.00,,,0.00,0,WeatherCatV1.20B785,2013-12-05 02:47:00,
2013-12-04 21:48:00,40.2,37.5,30.06,ESE,111,0.0,2.0,90,0.00,,,0.00,0,WeatherCatV1.20B785,2013-12-05 02:48:00,
2013-12-04 21:49:00,40.2,37.5,30.06,ESE,111,1.0,1.0,90,0.00,,,0.00,0,WeatherCatV1.20B785,2013-12-05 02:49:00,
2013-12-04 21:50:00,40.2,37.5,30.06,ESE,111,0.0,1.0,90,0.00,,,0.00,0,WeatherCatV1.20B785,2013-12-05 02:50:00,
2013-12-04 21:51:00,40.2,37.5,30.06,ESE,111,0.0,1.0,90,0.00,,,0.00,0,WeatherCatV1.20B785,2013-12-05 02:51:00,
2013-12-04 21:52:00,40.0,37.3,30.06,ESE,111,0.0,3.0,90,0.00,,,0.00,0,WeatherCatV1.20B785,2013-12-05 02:52:00,
2013-12-04 21:53:00,39.9,37.2,30.06,ESE,111,0.0,3.0,90,0.00,,,0.00,0,WeatherCatV1.20B785,2013-12-05 02:53:00,
2013-12-04 21:54:00,39.8,37.1,30.05,ESE,111,0.0,0.0,90,0.00,,,0.00,0,WeatherCatV1.20B785,2013-12-05 02:54:00,
2013-12-04 21:56:00,39.7,37.0,30.05,ESE,111,0.0,0.0,90,0.00,,,0.00,0,WeatherCatV1.20B785,2013-12-05 02:56:00,
2013-12-04 21:57:00,39.6,36.9,30.05,ESE,111,0.0,0.0,90,0.00,,,0.00,0,WeatherCatV1.20B785,2013-12-05 02:57:00,
2013-12-04 21:58:00,39.6,36.9,30.05,ESE,111,0.0,0.0,90,0.00,,,0.00,0,WeatherCatV1.20B785,2013-12-05 02:58:00,
2013-12-04 21:59:00,39.6,36.9,30.05,ESE,111,1.0,1.0,90,0.00,,,0.00,0,WeatherCatV1.20B785,2013-12-05 02:59:00,
2013-12-04 22:01:00,39.6,36.9,30.06,ESE,111,0.0,2.0,90,0.00,,,0.00,0,WeatherCatV1.20B785,2013-12-05 03:01:00,
2013-12-04 22:02:00,39.6,36.9,30.06,ESE,111,0.0,0.0,90,0.00,,,0.00,0,WeatherCatV1.20B785,2013-12-05 03:02:00,
2013-12-04 22:03:00,39.6,36.9,30.05,ESE,111,0.0,0.0,90,0.00,,,0.00,0,WeatherCatV1.20B785,2013-12-05 03:03:00,
2013-12-04 22:04:00,39.6,36.6,30.05,ESE,111,2.0,2.0,89,0.00,,,0.00,0,WeatherCatV1.20B785,2013-12-05 03:04:00,
2013-12-04 22:06:00,39.7,36.7,30.05,ESE,111,1.0,2.0,89,0.00,,,0.00,0,WeatherCatV1.20B785,2013-12-05 03:06:00,
2013-12-04 22:07:00,39.8,36.5,30.05,ESE,111,1.0,2.0,88,0.00,,,0.00,0,WeatherCatV1.20B785,2013-12-05 03:07:00,
2013-12-04 22:08:00,39.9,36.6,30.05,ESE,111,0.0,2.0,88,0.00,,,0.00,0,WeatherCatV1.20B785,2013-12-05 03:08:00,
2013-12-04 22:09:00,39.8,36.8,30.05,ESE,111,0.0,0.0,89,0.00,,,0.00,0,WeatherCatV1.20B785,2013-12-05 03:09:00,
2013-12-04 22:10:00,39.7,36.7,30.05,ESE,111,0.0,0.0,89,0.00,,,0.00,0,WeatherCatV1.20B785,2013-12-05 03:10:00,
2013-12-04 22:11:00,39.7,36.7,30.05,ESE,111,1.0,1.0,89,0.00,,,0.00,0,WeatherCatV1.20B785,2013-12-05 03:11:00,
2013-12-04 22:12:00,39.6,36.9,30.05,ESE,111,0.0,2.0,90,0.00,,,0.00,0,WeatherCatV1.20B785,2013-12-05 03:12:00,
2013-12-04 22:13:00,39.5,36.8,30.05,ESE,111,0.0,2.0,90,0.00,,,0.00,0,WeatherCatV1.20B785,2013-12-05 03:13:00,
2013-12-04 22:15:00,39.4,36.7,30.05,ESE,111,0.0,0.0,90,0.00,,,0.00,0,WeatherCatV1.20B785,2013-12-05 03:15:00,
2013-12-04 22:16:00,39.4,36.4,30.05,ESE,111,0.0,0.0,89,0.00,,,0.00,0,WeatherCatV1.20B785,2013-12-05 03:16:00,
2013-12-04 22:17:00,39.4,36.4,30.05,ESE,111,0.0,0.0,89,0.00,,,0.00,0,WeatherCatV1.20B785,2013-12-05 03:17:00,
2013-12-04 22:18:00,39.3,36.3,30.05,ESE,111,0.0,2.0,89,0.00,,,0.00,0,WeatherCatV1.20B785,2013-12-05 03:18:00,
2013-12-04 22:21:00,39.3,36.3,30.05,SE,134,0.0,2.0,89,0.00,,,0.00,0,WeatherCatV1.20B785,2013-12-05 03:21:00,
2013-12-04 22:22:00,39.2,36.2,30.05,SE,134,0.0,2.0,89,0.00,,,0.00,0,WeatherCatV1.20B785,2013-12-05 03:22:00,
2013-12-04 22:23:00,39.2,36.2,30.05,SE,134,1.0,1.0,89,0.00,,,0.00,0,WeatherCatV1.20B785,2013-12-05 03:23:00,
2013-12-04 22:26:00,39.0,36.3,30.05,West,281,0.0,0.0,90,0.00,,,0.00,0,WeatherCatV1.20B785,2013-12-05 03:26:00,
2013-12-04 22:27:00,39.0,36.3,30.05,West,281,0.0,0.0,90,0.00,,,0.00,0,WeatherCatV1.20B785,2013-12-05 03:27:00,
2013-12-04 22:28:00,38.9,36.2,30.05,West,281,0.0,1.0,90,0.00,,,0.00,0,WeatherCatV1.20B785,2013-12-05 03:28:00,
2013-12-04 22:29:00,38.9,36.2,30.05,West,281,0.0,1.0,90,0.00,,,0.00,0,WeatherCatV1.20B785,2013-12-05 03:29:00,
2013-12-04 22:31:00,38.8,36.1,30.05,West,281,0.0,1.0,90,0.00,,,0.00,0,WeatherCatV1.20B785,2013-12-05 03:31:00,
2013-12-04 22:32:00,38.8,35.8,30.05,West,281,0.0,1.0,89,0.00,,,0.00,0,WeatherCatV1.20B785,2013-12-05 03:32:00,
2013-12-04 22:33:00,38.8,35.8,30.05,West,281,0.0,0.0,89,0.00,,,0.00,0,WeatherCatV1.20B785,2013-12-05 03:33:00,
2013-12-04 22:34:00,38.8,35.8,30.05,West,281,0.0,0.0,89,0.00,,,0.00,0,WeatherCatV1.20B785,2013-12-05 03:34:00,
2013-12-04 22:37:00,38.9,35.9,30.05,West,281,0.0,1.0,89,0.00,,,0.00,0,WeatherCatV1.20B785,2013-12-05 03:37:00,
2013-12-04 22:39:00,38.8,35.8,30.05,SE,142,0.0,2.0,89,0.00,,,0.00,0,WeatherCatV1.20B785,2013-12-05 03:39:00,
2013-12-04 22:40:00,38.8,35.8,30.05,SE,142,0.0,0.0,89,0.00,,,0.00,0,WeatherCatV1.20B785,2013-12-05 03:40:00,
2013-12-04 22:42:00,38.9,35.7,30.05,SE,142,0.0,0.0,88,0.00,,,0.00,0,WeatherCatV1.20B785,2013-12-05 03:42:00,
2013-12-04 22:43:00,38.9,35.7,30.05,SE,142,0.0,0.0,88,0.00,,,0.00,0,WeatherCatV1.20B785,2013-12-05 03:43:00,
2013-12-04 22:44:00,38.8,35.8,30.05,SE,142,0.0,0.0,89,0.00,,,0.00,0,WeatherCatV1.20B785,2013-12-05 03:44:00,
2013-12-04 22:46:00,38.8,35.8,30.05,SE,142,0.0,0.0,89,0.00,,,0.00,0,WeatherCatV1.20B785,2013-12-05 03:46:00,
2013-12-04 22:48:00,38.8,35.8,30.05,SE,142,0.0,1.0,89,0.00,,,0.00,0,WeatherCatV1.20B785,2013-12-05 03:48:00,
2013-12-04 22:49:00,38.9,35.7,30.05,SE,142,0.0,0.0,88,0.00,,,0.00,0,WeatherCatV1.20B785,2013-12-05 03:49:00,
2013-12-04 22:51:00,38.9,35.7,30.05,SE,142,0.0,0.0,88,0.00,,,0.00,0,WeatherCatV1.20B785,2013-12-05 03:51:00,
2013-12-04 22:53:00,39.0,35.8,30.05,SE,142,0.0,0.0,88,0.00,,,0.00,0,WeatherCatV1.20B785,2013-12-05 03:53:00,
2013-12-04 22:54:00,39.1,35.8,30.05,SE,142,0.0,0.0,88,0.00,,,0.00,0,WeatherCatV1.20B785,2013-12-05 03:54:00,
2013-12-04 22:55:00,39.1,35.8,30.05,SE,142,0.0,0.0,88,0.00,,,0.00,0,WeatherCatV1.20B785,2013-12-05 03:55:00,
2013-12-04 22:56:00,39.1,35.8,30.05,SE,142,0.0,0.0,88,0.00,,,0.00,0,WeatherCatV1.20B785,2013-12-05 03:56:00,
2013-12-04 22:59:00,39.1,35.8,30.05,SE,142,0.0,0.0,88,0.00,,,0.00,0,WeatherCatV1.20B785,2013-12-05 03:59:00,
2013-12-04 23:00:00,39.1,35.8,30.05,SE,142,0.0,0.0,88,0.00,,,0.00,0,WeatherCatV1.20B785,2013-12-05 04:00:00,
2013-12-04 23:01:00,39.1,35.8,30.06,SE,142,0.0,0.0,88,0.00,,,0.00,0,WeatherCatV1.20B785,2013-12-05 04:01:00,
2013-12-04 23:04:00,39.2,36.0,30.05,SE,142,1.0,1.0,88,0.00,,,0.00,0,WeatherCatV1.20B785,2013-12-05 04:04:00,
2013-12-04 23:05:00,39.2,36.0,30.05,SE,142,0.0,1.0,88,0.00,,,0.00,0,WeatherCatV1.20B785,2013-12-05 04:05:00,
2013-12-04 23:06:00,39.2,36.0,30.05,SE,142,1.0,1.0,88,0.00,,,0.00,0,WeatherCatV1.20B785,2013-12-05 04:06:00,
2013-12-04 23:09:00,39.2,36.0,30.06,SE,142,0.0,0.0,88,0.00,,,0.00,0,WeatherCatV1.20B785,2013-12-05 04:09:00,
2013-12-04 23:10:00,39.3,36.0,30.06,SE,142,0.0,1.0,88,0.00,,,0.00,0,WeatherCatV1.20B785,2013-12-05 04:10:00,
2013-12-04 23:12:00,39.3,36.0,30.06,SE,142,1.0,1.0,88,0.00,,,0.00,0,WeatherCatV1.20B785,2013-12-05 04:12:00,
2013-12-04 23:14:00,39.4,36.2,30.06,West,262,0.0,1.0,88,0.00,,,0.00,0,WeatherCatV1.20B785,2013-12-05 04:14:00,
2013-12-04 23:15:00,39.4,36.2,30.06,West,262,0.0,1.0,88,0.00,,,0.00,0,WeatherCatV1.20B785,2013-12-05 04:15:00,
2013-12-04 23:17:00,39.4,36.2,30.06,West,262,0.0,0.0,88,0.00,,,0.00,0,WeatherCatV1.20B785,2013-12-05 04:17:00,
2013-12-04 23:18:00,39.5,36.2,30.06,West,262,0.0,0.0,88,0.00,,,0.00,0,WeatherCatV1.20B785,2013-12-05 04:18:00,
2013-12-04 23:20:00,39.5,36.2,30.06,West,262,0.0,0.0,88,0.00,,,0.00,0,WeatherCatV1.20B785,2013-12-05 04:20:00,
2013-12-04 23:22:00,39.6,36.0,30.06,South,171,0.0,1.0,87,0.00,,,0.00,0,WeatherCatV1.20B785,2013-12-05 04:22:00,
2013-12-04 23:23:00,39.7,36.2,30.06,South,171,0.0,0.0,87,0.00,,,0.00,0,WeatherCatV1.20B785,2013-12-05 04:23:00,
2013-12-04 23:25:00,39.7,36.2,30.06,SSE,148,1.0,2.0,87,0.00,,,0.00,0,WeatherCatV1.20B785,2013-12-05 04:25:00,
2013-12-04 23:26:00,39.7,36.4,30.06,SSE,148,1.0,2.0,88,0.00,,,0.00,0,WeatherCatV1.20B785,2013-12-05 04:26:00,
2013-12-04 23:27:00,39.6,36.3,30.06,SSE,148,0.0,2.0,88,0.00,,,0.00,0,WeatherCatV1.20B785,2013-12-05 04:27:00,
2013-12-04 23:29:00,39.5,36.5,30.06,SSE,148,0.0,0.0,89,0.00,,,0.00,0,WeatherCatV1.20B785,2013-12-05 04:29:00,
2013-12-04 23:30:00,39.4,36.4,30.06,SSE,148,1.0,1.0,89,0.00,,,0.00,0,WeatherCatV1.20B785,2013-12-05 04:30:00,
2013-12-04 23:31:00,39.4,36.4,30.06,SSE,148,1.0,1.0,89,0.00,,,0.00,0,WeatherCatV1.20B785,2013-12-05 04:31:00,
2013-12-04 23:32:00,39.4,36.4,30.06,SSE,148,0.0,0.0,89,0.00,,,0.00,0,WeatherCatV1.20B785,2013-12-05 04:32:00,
2013-12-04 23:33:00,39.3,36.3,30.06,SSE,148,0.0,0.0,89,0.00,,,0.00,0,WeatherCatV1.20B785,2013-12-05 04:33:00,
2013-12-04 23:34:00,39.3,36.3,30.06,SSE,148,0.0,0.0,89,0.00,,,0.00,0,WeatherCatV1.20B785,2013-12-05 04:34:00,
2013-12-04 23:35:00,39.3,36.3,30.06,SSE,148,0.0,0.0,89,0.00,,,0.00,0,WeatherCatV1.20B785,2013-12-05 04:35:00,
2013-12-04 23:37:00,39.3,36.3,30.06,SSE,148,0.0,0.0,89,0.00,,,0.00,0,WeatherCatV1.20B785,2013-12-05 04:37:00,
2013-12-04 23:38:00,39.3,36.3,30.06,SSE,148,0.0,0.0,89,0.00,,,0.00,0,WeatherCatV1.20B785,2013-12-05 04:38:00,
2013-12-04 23:40:00,39.4,36.2,30.06,SSE,148,0.0,0.0,88,0.00,,,0.00,0,WeatherCatV1.20B785,2013-12-05 04:40:00,
2013-12-04 23:41:00,39.4,36.2,30.06,SSE,148,0.0,0.0,88,0.00,,,0.00,0,WeatherCatV1.20B785,2013-12-05 04:41:00,
2013-12-04 23:42:00,39.5,36.2,30.06,SSE,148,0.0,0.0,88,0.00,,,0.00,0,WeatherCatV1.20B785,2013-12-05 04:42:00,
2013-12-04 23:43:00,39.5,36.2,30.06,SSE,148,0.0,0.0,88,0.00,,,0.00,0,WeatherCatV1.20B785,2013-12-05 04:43:00,
2013-12-04 23:44:00,39.5,36.2,30.06,SSE,148,0.0,0.0,88,0.00,,,0.00,0,WeatherCatV1.20B785,2013-12-05 04:44:00,
2013-12-04 23:47:00,39.6,36.3,30.06,SSE,148,0.0,0.0,88,0.00,,,0.00,0,WeatherCatV1.20B785,2013-12-05 04:47:00,
2013-12-04 23:48:00,39.7,36.4,30.06,SSE,148,0.0,0.0,88,0.00,,,0.00,0,WeatherCatV1.20B785,2013-12-05 04:48:00,
2013-12-04 23:50:00,39.7,36.4,30.06,SSE,148,0.0,0.0,88,0.00,,,0.00,0,WeatherCatV1.20B785,2013-12-05 04:50:00,
2013-12-04 23:52:00,39.7,36.4,30.06,SSE,148,0.0,0.0,88,0.00,,,0.00,0,WeatherCatV1.20B785,2013-12-05 04:52:00,
2013-12-04 23:53:00,39.8,36.5,30.06,SSE,148,0.0,0.0,88,0.00,,,0.00,0,WeatherCatV1.20B785,2013-12-05 04:53:00,
2013-12-04 23:54:00,39.8,36.5,30.06,SSE,148,0.0,0.0,88,0.00,,,0.00,0,WeatherCatV1.20B785,2013-12-05 04:54:00,
2013-12-04 23:57:00,39.9,36.6,30.06,SSE,148,0.0,0.0,88,0.00,,,0.00,0,WeatherCatV1.20B785,2013-12-05 04:57:00,
2013-12-04 23:58:00,40.0,36.7,30.06,SSE,148,0.0,0.0,88,0.00,,,0.00,0,WeatherCatV1.20B785,2013-12-05 04:58:00,
2013-12-04 23:59:00,40.0,36.7,30.06,SSE,148,0.0,0.0,88,0.00,,,0.00,0,WeatherCatV1.20B785,2013-12-05 04:59:00,